| time (UTC) | temp C | wind direction | speed KPH | gust KPH | rain 1hr cm | rain 24hr cm | rain mn cm | humidity % | barometer mb |
| 20260506225916 | 16 | 74 | 6.4 | 17.7 | 0.00 | 0.00 | 0.00 | 65 | 1016.4 |
| 20260506225804 | 16 | 74 | 6.4 | 17.7 | 0.00 | 0.00 | 0.00 | 65 | 1016.4 |
| 20260506225717 | 16 | 75 | 6.4 | 14.5 | 0.00 | 0.00 | 0.00 | 66 | 1016.4 |
| 20260506225604 | 16 | 76 | 6.4 | 14.5 | 0.00 | 0.00 | 0.00 | 67 | 1016.4 |
| 20260506225516 | 16 | 77 | 6.4 | 9.7 | 0.00 | 0.00 | 0.00 | 68 | 1016.5 |
| 20260506225404 | 17 | 78 | 6.4 | 9.7 | 0.00 | 0.00 | 0.00 | 68 | 1016.5 |
| 20260506225316 | 17 | 79 | 6.4 | 9.7 | 0.00 | 0.00 | 0.00 | 68 | 1016.5 |
| 20260506225203 | 17 | 78 | 6.4 | 9.7 | 0.00 | 0.00 | 0.00 | 69 | 1016.5 |
| 20260506225116 | 17 | 78 | 6.4 | 9.7 | 0.00 | 0.00 | 0.00 | 69 | 1016.5 |
| 20260506225004 | 17 | 78 | 6.4 | 11.3 | 0.00 | 0.00 | 0.00 | 69 | 1016.5 |
| 20260506224916 | 17 | 77 | 6.4 | 11.3 | 0.00 | 0.00 | 0.00 | 69 | 1016.5 |
| 20260506224804 | 17 | 77 | 6.4 | 11.3 | 0.00 | 0.00 | 0.00 | 69 | 1016.6 |
| 20260506224717 | 17 | 77 | 6.4 | 11.3 | 0.00 | 0.00 | 0.00 | 69 | 1016.6 |
| 20260506224603 | 17 | 77 | 6.4 | 11.3 | 0.00 | 0.00 | 0.00 | 69 | 1016.6 |
| 20260506224516 | 17 | 77 | 6.4 | 11.3 | 0.00 | 0.00 | 0.00 | 69 | 1016.6 |
| 20260506224403 | 17 | 77 | 4.8 | 11.3 | 0.00 | 0.00 | 0.00 | 69 | 1016.6 |
| 20260506224316 | 17 | 77 | 4.8 | 11.3 | 0.00 | 0.00 | 0.00 | 69 | 1016.6 |
| 20260506224203 | 17 | 78 | 4.8 | 11.3 | 0.00 | 0.00 | 0.00 | 68 | 1016.6 |
| 20260506224116 | 17 | 78 | 4.8 | 11.3 | 0.00 | 0.00 | 0.00 | 68 | 1016.6 |
| 20260506224004 | 17 | 78 | 4.8 | 11.3 | 0.00 | 0.00 | 0.00 | 68 | 1016.6 |
| 20260506223916 | 17 | 78 | 4.8 | 11.3 | 0.00 | 0.00 | 0.00 | 67 | 1016.6 |
| 20260506223803 | 17 | 79 | 4.8 | 11.3 | 0.00 | 0.00 | 0.00 | 67 | 1016.6 |
| 20260506223716 | 17 | 78 | 4.8 | 11.3 | 0.00 | 0.00 | 0.00 | 67 | 1016.7 |
| 20260506223603 | 17 | 78 | 4.8 | 11.3 | 0.00 | 0.00 | 0.00 | 67 | 1016.7 |
| 20260506223516 | 17 | 78 | 4.8 | 9.7 | 0.00 | 0.00 | 0.00 | 66 | 1016.7 |
| 20260506223403 | 17 | 78 | 4.8 | 9.7 | 0.00 | 0.00 | 0.00 | 66 | 1016.7 |
| 20260506223315 | 17 | 77 | 4.8 | 9.7 | 0.00 | 0.00 | 0.00 | 66 | 1016.7 |
| 20260506223203 | 17 | 77 | 4.8 | 9.7 | 0.00 | 0.00 | 0.00 | 65 | 1016.7 |
| 20260506223115 | 17 | 76 | 4.8 | 9.7 | 0.00 | 0.00 | 0.00 | 65 | 1016.7 |
| 20260506223003 | 17 | 77 | 4.8 | 11.3 | 0.00 | 0.00 | 0.00 | 65 | 1016.7 |
| 20260506222916 | 17 | 77 | 3.2 | 11.3 | 0.00 | 0.00 | 0.00 | 65 | 1016.7 |
| 20260506222803 | 17 | 77 | 3.2 | 11.3 | 0.00 | 0.00 | 0.00 | 64 | 1016.7 |
| 20260506222716 | 17 | 77 | 3.2 | 11.3 | 0.00 | 0.00 | 0.00 | 64 | 1016.7 |
| 20260506222603 | 17 | 77 | 3.2 | 11.3 | 0.00 | 0.00 | 0.00 | 64 | 1016.7 |
| 20260506222516 | 17 | 78 | 3.2 | 11.3 | 0.00 | 0.00 | 0.00 | 63 | 1016.7 |
| 20260506222404 | 17 | 78 | 3.2 | 11.3 | 0.00 | 0.00 | 0.00 | 62 | 1016.7 |
| 20260506222316 | 17 | 78 | 3.2 | 11.3 | 0.00 | 0.00 | 0.00 | 62 | 1016.7 |
| 20260506222203 | 17 | 79 | 1.6 | 11.3 | 0.00 | 0.00 | 0.00 | 61 | 1016.6 |
| 20260506222117 | 17 | 80 | 1.6 | 11.3 | 0.00 | 0.00 | 0.00 | 61 | 1016.7 |
| 20260506222003 | 17 | 80 | 1.6 | 9.7 | 0.00 | 0.00 | 0.00 | 60 | 1016.7 |
| 20260506221916 | 17 | 81 | 3.2 | 9.7 | 0.00 | 0.00 | 0.00 | 60 | 1016.7 |
| 20260506221803 | 17 | 81 | 3.2 | 6.4 | 0.00 | 0.00 | 0.00 | 60 | 1016.7 |
| 20260506221716 | 17 | 81 | 3.2 | 6.4 | 0.00 | 0.00 | 0.00 | 59 | 1016.7 |
| 20260506221603 | 17 | 80 | 3.2 | 9.7 | 0.00 | 0.00 | 0.00 | 59 | 1016.7 |
| 20260506221516 | 17 | 80 | 3.2 | 9.7 | 0.00 | 0.00 | 0.00 | 59 | 1016.7 |
| 20260506221403 | 17 | 80 | 4.8 | 9.7 | 0.00 | 0.00 | 0.00 | 58 | 1016.7 |
| 20260506221316 | 17 | 80 | 4.8 | 9.7 | 0.00 | 0.00 | 0.00 | 58 | 1016.7 |
| 20260506221203 | 17 | 80 | 4.8 | 9.7 | 0.00 | 0.00 | 0.00 | 58 | 1016.7 |
| 20260506221115 | 17 | 80 | 4.8 | 11.3 | 0.00 | 0.00 | 0.00 | 58 | 1016.7 |
| 20260506221003 | 17 | 80 | 6.4 | 11.3 | 0.00 | 0.00 | 0.00 | 58 | 1016.6 |
| 20260506220915 | 17 | 80 | 6.4 | 11.3 | 0.00 | 0.00 | 0.00 | 58 | 1016.7 |
| 20260506220803 | 17 | 80 | 6.4 | 11.3 | 0.00 | 0.00 | 0.00 | 58 | 1016.6 |
| 20260506220716 | 17 | 80 | 6.4 | 11.3 | 0.00 | 0.00 | 0.00 | 58 | 1016.6 |
| 20260506220604 | 17 | 80 | 6.4 | 11.3 | 0.00 | 0.00 | 0.00 | 58 | 1016.7 |
| 20260506220517 | 17 | 80 | 6.4 | 11.3 | 0.00 | 0.00 | 0.00 | 58 | 1016.7 |
| 20260506220403 | 17 | 79 | 6.4 | 11.3 | 0.00 | 0.00 | 0.00 | 58 | 1016.6 |
| 20260506220316 | 17 | 79 | 6.4 | 11.3 | 0.00 | 0.00 | 0.00 | 58 | 1016.6 |
| 20260506220203 | 17 | 79 | 6.4 | 11.3 | 0.00 | 0.00 | 0.00 | 58 | 1016.6 |
| 20260506220116 | 17 | 78 | 6.4 | 11.3 | 0.00 | 0.00 | 0.00 | 58 | 1016.6 |
| 20260506220004 | 17 | 78 | 6.4 | 11.3 | 0.00 | 0.00 | 0.00 | 58 | 1016.6 |
| 20260506215918 | 17 | 78 | 6.4 | 11.3 | 0.00 | 0.00 | 0.00 | 58 | 1016.6 |
| 20260506215803 | 17 | 78 | 6.4 | 11.3 | 0.00 | 0.00 | 0.00 | 58 | 1016.6 |
| 20260506215715 | 17 | 77 | 6.4 | 11.3 | 0.00 | 0.00 | 0.00 | 58 | 1016.5 |
| 20260506215603 | 17 | 77 | 6.4 | 11.3 | 0.00 | 0.00 | 0.00 | 58 | 1016.5 |
| 20260506215516 | 17 | 76 | 6.4 | 11.3 | 0.00 | 0.00 | 0.00 | 58 | 1016.6 |
| 20260506215403 | 17 | 76 | 6.4 | 11.3 | 0.00 | 0.00 | 0.00 | 58 | 1016.6 |
| 20260506215316 | 17 | 76 | 6.4 | 17.7 | 0.00 | 0.00 | 0.00 | 58 | 1016.6 |
| 20260506215203 | 17 | 76 | 6.4 | 17.7 | 0.00 | 0.00 | 0.00 | 58 | 1016.6 |
| 20260506215116 | 17 | 77 | 6.4 | 17.7 | 0.00 | 0.00 | 0.00 | 58 | 1016.6 |
| 20260506215004 | 17 | 77 | 6.4 | 17.7 | 0.00 | 0.00 | 0.00 | 58 | 1016.6 |
| 20260506214916 | 17 | 77 | 6.4 | 17.7 | 0.00 | 0.00 | 0.00 | 58 | 1016.6 |
| 20260506214804 | 17 | 77 | 6.4 | 17.7 | 0.00 | 0.00 | 0.00 | 58 | 1016.6 |
| 20260506214716 | 17 | 77 | 6.4 | 17.7 | 0.00 | 0.00 | 0.00 | 58 | 1016.6 |
| 20260506214604 | 17 | 77 | 6.4 | 17.7 | 0.00 | 0.00 | 0.00 | 58 | 1016.6 |
| 20260506214516 | 17 | 76 | 6.4 | 17.7 | 0.00 | 0.00 | 0.00 | 58 | 1016.6 |
| 20260506214403 | 17 | 76 | 6.4 | 17.7 | 0.00 | 0.00 | 0.00 | 58 | 1016.6 |
| 20260506214317 | 17 | 77 | 6.4 | 11.3 | 0.00 | 0.00 | 0.00 | 58 | 1016.6 |
| 20260506214204 | 17 | 77 | 6.4 | 11.3 | 0.00 | 0.00 | 0.00 | 58 | 1016.6 |
| 20260506214116 | 17 | 77 | 6.4 | 11.3 | 0.00 | 0.00 | 0.00 | 58 | 1016.6 |
| 20260506214003 | 17 | 77 | 6.4 | 11.3 | 0.00 | 0.00 | 0.00 | 58 | 1016.6 |
| 20260506213916 | 17 | 77 | 6.4 | 11.3 | 0.00 | 0.00 | 0.00 | 58 | 1016.6 |
| 20260506213803 | 17 | 77 | 4.8 | 11.3 | 0.00 | 0.00 | 0.00 | 58 | 1016.6 |
| 20260506213716 | 17 | 77 | 4.8 | 11.3 | 0.00 | 0.00 | 0.00 | 58 | 1016.7 |
| 20260506213604 | 17 | 77 | 4.8 | 11.3 | 0.00 | 0.00 | 0.00 | 58 | 1016.7 |
| 20260506213517 | 17 | 77 | 4.8 | 11.3 | 0.00 | 0.00 | 0.00 | 58 | 1016.7 |
| 20260506213403 | 17 | 77 | 4.8 | 9.7 | 0.00 | 0.00 | 0.00 | 58 | 1016.7 |
| 20260506213317 | 17 | 77 | 4.8 | 9.7 | 0.00 | 0.00 | 0.00 | 59 | 1016.7 |
| 20260506213203 | 17 | 76 | 4.8 | 11.3 | 0.00 | 0.00 | 0.00 | 59 | 1016.7 |
| 20260506213116 | 17 | 77 | 4.8 | 11.3 | 0.00 | 0.00 | 0.00 | 59 | 1016.7 |
| 20260506213003 | 17 | 77 | 4.8 | 11.3 | 0.00 | 0.00 | 0.00 | 59 | 1016.7 |
| 20260506212915 | 17 | 77 | 4.8 | 11.3 | 0.00 | 0.00 | 0.00 | 59 | 1016.7 |
| 20260506212803 | 17 | 77 | 4.8 | 11.3 | 0.00 | 0.00 | 0.00 | 59 | 1016.7 |
| 20260506212716 | 17 | 77 | 4.8 | 11.3 | 0.00 | 0.00 | 0.00 | 59 | 1016.7 |
| 20260506212603 | 17 | 77 | 6.4 | 11.3 | 0.00 | 0.00 | 0.00 | 59 | 1016.7 |
| 20260506212516 | 17 | 78 | 6.4 | 11.3 | 0.00 | 0.00 | 0.00 | 59 | 1016.7 |
| 20260506212403 | 17 | 78 | 6.4 | 11.3 | 0.00 | 0.00 | 0.00 | 59 | 1016.8 |
| 20260506212317 | 17 | 79 | 6.4 | 11.3 | 0.00 | 0.00 | 0.00 | 59 | 1016.7 |
| 20260506212203 | 17 | 80 | 6.4 | 9.7 | 0.00 | 0.00 | 0.00 | 59 | 1016.8 |
| 20260506212116 | 17 | 81 | 6.4 | 9.7 | 0.00 | 0.00 | 0.00 | 59 | 1016.7 |
| 20260506212004 | 17 | 81 | 6.4 | 11.3 | 0.00 | 0.00 | 0.00 | 60 | 1016.8 |
| 20260506211917 | 17 | 82 | 6.4 | 11.3 | 0.00 | 0.00 | 0.00 | 60 | 1016.8 |
| 20260506211804 | 17 | 81 | 6.4 | 11.3 | 0.00 | 0.00 | 0.00 | 60 | 1016.8 |
| 20260506211717 | 17 | 81 | 6.4 | 17.7 | 0.00 | 0.00 | 0.00 | 60 | 1016.8 |
| 20260506211604 | 17 | 82 | 6.4 | 17.7 | 0.00 | 0.00 | 0.00 | 60 | 1016.8 |
| 20260506211516 | 17 | 82 | 6.4 | 17.7 | 0.00 | 0.00 | 0.00 | 60 | 1016.8 |
| 20260506211403 | 17 | 82 | 6.4 | 17.7 | 0.00 | 0.00 | 0.00 | 60 | 1016.8 |
| 20260506211316 | 17 | 82 | 6.4 | 17.7 | 0.00 | 0.00 | 0.00 | 60 | 1016.8 |
| 20260506211204 | 17 | 80 | 6.4 | 17.7 | 0.00 | 0.00 | 0.00 | 61 | 1016.8 |
| 20260506211116 | 17 | 80 | 6.4 | 17.7 | 0.00 | 0.00 | 0.00 | 61 | 1016.8 |
| 20260506211003 | 17 | 79 | 6.4 | 17.7 | 0.00 | 0.00 | 0.00 | 61 | 1016.8 |
| 20260506210916 | 17 | 79 | 6.4 | 17.7 | 0.00 | 0.00 | 0.00 | 61 | 1016.8 |
| 20260506210804 | 17 | 79 | 6.4 | 17.7 | 0.00 | 0.00 | 0.00 | 61 | 1016.7 |
| 20260506210716 | 17 | 78 | 6.4 | 11.3 | 0.00 | 0.00 | 0.00 | 61 | 1016.8 |
| 20260506210604 | 17 | 78 | 6.4 | 11.3 | 0.00 | 0.00 | 0.00 | 61 | 1016.7 |
| 20260506210517 | 17 | 77 | 6.4 | 11.3 | 0.00 | 0.00 | 0.00 | 61 | 1016.8 |
| 20260506210404 | 17 | 77 | 6.4 | 11.3 | 0.00 | 0.00 | 0.00 | 61 | 1016.8 |
| 20260506210316 | 17 | 76 | 6.4 | 11.3 | 0.00 | 0.00 | 0.00 | 61 | 1016.7 |
| 20260506210204 | 17 | 76 | 6.4 | 11.3 | 0.00 | 0.00 | 0.00 | 61 | 1016.7 |
| 20260506210116 | 17 | 76 | 6.4 | 11.3 | 0.00 | 0.00 | 0.00 | 61 | 1016.8 |
| 20260506210010 | 17 | 76 | 6.4 | 11.3 | 0.00 | 0.00 | 0.00 | 61 | 1016.8 |
| 20260506205917 | 17 | 76 | 6.4 | 11.3 | 0.00 | 0.00 | 0.00 | 61 | 1016.8 |
| 20260506205804 | 17 | 76 | 6.4 | 11.3 | 0.00 | 0.00 | 0.00 | 61 | 1016.8 |
| 20260506205717 | 17 | 76 | 6.4 | 11.3 | 0.00 | 0.00 | 0.00 | 61 | 1016.8 |
| 20260506205603 | 17 | 76 | 6.4 | 11.3 | 0.00 | 0.00 | 0.00 | 61 | 1016.8 |
| 20260506205516 | 17 | 76 | 6.4 | 11.3 | 0.00 | 0.00 | 0.00 | 61 | 1016.8 |
| 20260506205403 | 17 | 76 | 6.4 | 11.3 | 0.00 | 0.00 | 0.00 | 61 | 1016.8 |
| 20260506205316 | 17 | 76 | 6.4 | 11.3 | 0.00 | 0.00 | 0.00 | 60 | 1016.8 |
| 20260506205203 | 17 | 76 | 6.4 | 11.3 | 0.00 | 0.00 | 0.00 | 60 | 1016.8 |
| 20260506205116 | 17 | 76 | 6.4 | 11.3 | 0.00 | 0.00 | 0.00 | 60 | 1016.8 |
| 20260506205003 | 17 | 76 | 6.4 | 11.3 | 0.00 | 0.00 | 0.00 | 60 | 1016.8 |
| 20260506204916 | 17 | 77 | 6.4 | 11.3 | 0.00 | 0.00 | 0.00 | 60 | 1016.8 |
| 20260506204803 | 17 | 77 | 6.4 | 11.3 | 0.00 | 0.00 | 0.00 | 60 | 1016.8 |
| 20260506204716 | 17 | 78 | 6.4 | 11.3 | 0.00 | 0.00 | 0.00 | 60 | 1016.8 |
| 20260506204604 | 17 | 77 | 6.4 | 11.3 | 0.00 | 0.00 | 0.00 | 60 | 1016.8 |
| 20260506204516 | 17 | 77 | 6.4 | 11.3 | 0.00 | 0.00 | 0.00 | 60 | 1016.8 |
| 20260506204403 | 17 | 77 | 6.4 | 11.3 | 0.00 | 0.00 | 0.00 | 60 | 1016.8 |
| 20260506204315 | 17 | 77 | 6.4 | 11.3 | 0.00 | 0.00 | 0.00 | 60 | 1016.7 |
| 20260506204203 | 17 | 77 | 6.4 | 11.3 | 0.00 | 0.00 | 0.00 | 59 | 1016.7 |
| 20260506204116 | 17 | 76 | 8.0 | 11.3 | 0.00 | 0.00 | 0.00 | 59 | 1016.8 |
| 20260506204003 | 17 | 76 | 8.0 | 11.3 | 0.00 | 0.00 | 0.00 | 59 | 1016.8 |
| 20260506203916 | 17 | 76 | 8.0 | 11.3 | 0.00 | 0.00 | 0.00 | 59 | 1016.8 |
| 20260506203804 | 17 | 76 | 8.0 | 11.3 | 0.00 | 0.00 | 0.00 | 59 | 1016.8 |
| 20260506203716 | 17 | 75 | 8.0 | 11.3 | 0.00 | 0.00 | 0.00 | 59 | 1016.8 |
| 20260506203603 | 17 | 77 | 8.0 | 17.7 | 0.00 | 0.00 | 0.00 | 59 | 1016.8 |
| 20260506203516 | 17 | 77 | 8.0 | 20.9 | 0.00 | 0.00 | 0.00 | 59 | 1016.8 |
| 20260506203404 | 17 | 78 | 9.7 | 20.9 | 0.00 | 0.00 | 0.00 | 59 | 1016.7 |
| 20260506203317 | 17 | 79 | 9.7 | 20.9 | 0.00 | 0.00 | 0.00 | 59 | 1016.8 |
| 20260506203203 | 17 | 79 | 9.7 | 24.1 | 0.00 | 0.00 | 0.00 | 59 | 1016.8 |
| 20260506203116 | 17 | 80 | 9.7 | 24.1 | 0.00 | 0.00 | 0.00 | 59 | 1016.8 |
| 20260506203003 | 17 | 81 | 9.7 | 24.1 | 0.00 | 0.00 | 0.00 | 59 | 1016.7 |
| 20260506202916 | 17 | 82 | 9.7 | 24.1 | 0.00 | 0.00 | 0.00 | 59 | 1016.7 |
| 20260506202803 | 17 | 82 | 9.7 | 24.1 | 0.00 | 0.00 | 0.00 | 59 | 1016.7 |
| 20260506202716 | 17 | 83 | 9.7 | 24.1 | 0.00 | 0.00 | 0.00 | 59 | 1016.7 |
| 20260506202603 | 17 | 84 | 9.7 | 24.1 | 0.00 | 0.00 | 0.00 | 59 | 1016.7 |
| 20260506202517 | 17 | 84 | 9.7 | 24.1 | 0.00 | 0.00 | 0.00 | 58 | 1016.7 |
| 20260506202404 | 17 | 84 | 9.7 | 24.1 | 0.00 | 0.00 | 0.00 | 58 | 1016.7 |
| 20260506202317 | 17 | 84 | 9.7 | 24.1 | 0.00 | 0.00 | 0.00 | 58 | 1016.7 |
| 20260506202203 | 17 | 84 | 8.0 | 20.9 | 0.00 | 0.00 | 0.00 | 57 | 1016.7 |
| 20260506202116 | 17 | 84 | 8.0 | 20.9 | 0.00 | 0.00 | 0.00 | 57 | 1016.7 |
| 20260506202003 | 17 | 84 | 8.0 | 24.1 | 0.00 | 0.00 | 0.00 | 57 | 1016.7 |
| 20260506201916 | 17 | 83 | 8.0 | 24.1 | 0.00 | 0.00 | 0.00 | 56 | 1016.7 |
| 20260506201803 | 17 | 82 | 8.0 | 24.1 | 0.00 | 0.00 | 0.00 | 56 | 1016.7 |
| 20260506201716 | 17 | 81 | 8.0 | 24.1 | 0.00 | 0.00 | 0.00 | 56 | 1016.7 |
| 20260506201603 | 17 | 81 | 8.0 | 24.1 | 0.00 | 0.00 | 0.00 | 56 | 1016.7 |
| 20260506201516 | 17 | 80 | 6.4 | 24.1 | 0.00 | 0.00 | 0.00 | 55 | 1016.7 |
| 20260506201403 | 17 | 80 | 6.4 | 24.1 | 0.00 | 0.00 | 0.00 | 55 | 1016.7 |
| 20260506201316 | 17 | 79 | 6.4 | 24.1 | 0.00 | 0.00 | 0.00 | 55 | 1016.7 |
| 20260506201204 | 17 | 78 | 6.4 | 24.1 | 0.00 | 0.00 | 0.00 | 54 | 1016.7 |
| 20260506201116 | 17 | 78 | 6.4 | 24.1 | 0.00 | 0.00 | 0.00 | 54 | 1016.7 |
| 20260506201003 | 17 | 77 | 6.4 | 20.9 | 0.00 | 0.00 | 0.00 | 54 | 1016.7 |
| 20260506200916 | 17 | 76 | 6.4 | 20.9 | 0.00 | 0.00 | 0.00 | 55 | 1016.7 |
| 20260506200804 | 17 | 75 | 6.4 | 17.7 | 0.00 | 0.00 | 0.00 | 55 | 1016.7 |
| 20260506200716 | 17 | 75 | 6.4 | 17.7 | 0.00 | 0.00 | 0.00 | 55 | 1016.7 |
| 20260506200603 | 17 | 76 | 6.4 | 17.7 | 0.00 | 0.00 | 0.00 | 55 | 1016.7 |
| 20260506200516 | 17 | 76 | 6.4 | 17.7 | 0.00 | 0.00 | 0.00 | 55 | 1016.7 |
| 20260506200403 | 17 | 76 | 6.4 | 17.7 | 0.00 | 0.00 | 0.00 | 55 | 1016.7 |
| 20260506200316 | 17 | 76 | 6.4 | 17.7 | 0.00 | 0.00 | 0.00 | 55 | 1016.6 |
| 20260506200204 | 17 | 76 | 6.4 | 17.7 | 0.00 | 0.00 | 0.00 | 55 | 1016.7 |
| 20260506200117 | 17 | 75 | 6.4 | 17.7 | 0.00 | 0.00 | 0.00 | 55 | 1016.6 |
| 20260506200004 | 17 | 75 | 6.4 | 17.7 | 0.00 | 0.00 | 0.00 | 55 | 1016.6 |
| 20260506195916 | 17 | 75 | 6.4 | 17.7 | 0.00 | 0.00 | 0.00 | 55 | 1016.6 |
| 20260506195804 | 17 | 75 | 6.4 | 11.3 | 0.00 | 0.00 | 0.00 | 55 | 1016.6 |
| 20260506195717 | 17 | 76 | 6.4 | 11.3 | 0.00 | 0.00 | 0.00 | 54 | 1016.6 |
| 20260506195603 | 17 | 76 | 4.8 | 11.3 | 0.00 | 0.00 | 0.00 | 54 | 1016.6 |
| 20260506195516 | 17 | 77 | 4.8 | 11.3 | 0.00 | 0.00 | 0.00 | 54 | 1016.6 |
| 20260506195403 | 17 | 77 | 4.8 | 11.3 | 0.00 | 0.00 | 0.00 | 54 | 1016.5 |
| 20260506195316 | 17 | 78 | 4.8 | 11.3 | 0.00 | 0.00 | 0.00 | 54 | 1016.5 |
| 20260506195203 | 17 | 78 | 4.8 | 11.3 | 0.00 | 0.00 | 0.00 | 54 | 1016.5 |
| 20260506195116 | 17 | 80 | 4.8 | 9.7 | 0.00 | 0.00 | 0.00 | 54 | 1016.5 |
| 20260506195003 | 17 | 81 | 3.2 | 9.7 | 0.00 | 0.00 | 0.00 | 54 | 1016.5 |
| 20260506194916 | 17 | 82 | 3.2 | 9.7 | 0.00 | 0.00 | 0.00 | 54 | 1016.5 |
| 20260506194803 | 17 | 83 | 3.2 | 9.7 | 0.00 | 0.00 | 0.00 | 54 | 1016.5 |
| 20260506194716 | 17 | 84 | 3.2 | 9.7 | 0.00 | 0.00 | 0.00 | 54 | 1016.5 |
| 20260506194603 | 17 | 85 | 3.2 | 9.7 | 0.00 | 0.00 | 0.00 | 54 | 1016.5 |
| 20260506194516 | 17 | 86 | 3.2 | 9.7 | 0.00 | 0.00 | 0.00 | 54 | 1016.5 |
| 20260506194403 | 17 | 86 | 3.2 | 9.7 | 0.00 | 0.00 | 0.00 | 54 | 1016.5 |
| 20260506194316 | 17 | 87 | 3.2 | 9.7 | 0.00 | 0.00 | 0.00 | 54 | 1016.5 |
| 20260506194203 | 17 | 87 | 3.2 | 9.7 | 0.00 | 0.00 | 0.00 | 54 | 1016.5 |
| 20260506194116 | 17 | 88 | 3.2 | 9.7 | 0.00 | 0.00 | 0.00 | 54 | 1016.5 |
| 20260506194003 | 17 | 89 | 4.8 | 9.7 | 0.00 | 0.00 | 0.00 | 54 | 1016.5 |
| 20260506193916 | 17 | 89 | 4.8 | 9.7 | 0.00 | 0.00 | 0.00 | 54 | 1016.4 |
| 20260506193804 | 17 | 87 | 4.8 | 9.7 | 0.00 | 0.00 | 0.00 | 54 | 1016.5 |
| 20260506193717 | 17 | 83 | 4.8 | 11.3 | 0.00 | 0.00 | 0.00 | 54 | 1016.4 |
| 20260506193604 | 17 | 79 | 6.4 | 11.3 | 0.00 | 0.00 | 0.00 | 53 | 1016.5 |
| 20260506193516 | 17 | 78 | 6.4 | 11.3 | 0.00 | 0.00 | 0.00 | 53 | 1016.4 |
| 20260506193403 | 17 | 77 | 6.4 | 11.3 | 0.00 | 0.00 | 0.00 | 53 | 1016.4 |
| 20260506193317 | 17 | 76 | 6.4 | 11.3 | 0.00 | 0.00 | 0.00 | 52 | 1016.4 |
| 20260506193204 | 17 | 76 | 6.4 | 11.3 | 0.00 | 0.00 | 0.00 | 52 | 1016.4 |
| 20260506193117 | 17 | 76 | 4.8 | 11.3 | 0.00 | 0.00 | 0.00 | 52 | 1016.5 |
| 20260506193003 | 17 | 76 | 4.8 | 11.3 | 0.00 | 0.00 | 0.00 | 51 | 1016.4 |
| 20260506192916 | 18 | 75 | 4.8 | 11.3 | 0.00 | 0.00 | 0.00 | 51 | 1016.4 |
| 20260506192804 | 18 | 75 | 4.8 | 11.3 | 0.00 | 0.00 | 0.00 | 51 | 1016.5 |
| 20260506192717 | 18 | 75 | 4.8 | 9.7 | 0.00 | 0.00 | 0.00 | 51 | 1016.4 |
| 20260506192603 | 18 | 76 | 4.8 | 9.7 | 0.00 | 0.00 | 0.00 | 50 | 1016.4 |
| 20260506192516 | 18 | 76 | 3.2 | 9.7 | 0.00 | 0.00 | 0.00 | 51 | 1016.5 |
| 20260506192403 | 18 | 75 | 3.2 | 9.7 | 0.00 | 0.00 | 0.00 | 50 | 1016.4 |
| 20260506192316 | 18 | 75 | 3.2 | 9.7 | 0.00 | 0.00 | 0.00 | 50 | 1016.4 |
| 20260506192203 | 18 | 75 | 3.2 | 9.7 | 0.00 | 0.00 | 0.00 | 50 | 1016.4 |
| 20260506192116 | 18 | 75 | 3.2 | 9.7 | 0.00 | 0.00 | 0.00 | 50 | 1016.4 |
| 20260506192004 | 18 | 75 | 3.2 | 9.7 | 0.00 | 0.00 | 0.00 | 50 | 1016.4 |
| 20260506191916 | 18 | 75 | 3.2 | 9.7 | 0.00 | 0.00 | 0.00 | 49 | 1016.4 |
| 20260506191803 | 18 | 75 | 3.2 | 9.7 | 0.00 | 0.00 | 0.00 | 49 | 1016.4 |
| 20260506191716 | 18 | 76 | 3.2 | 9.7 | 0.00 | 0.00 | 0.00 | 49 | 1016.4 |
| 20260506191603 | 18 | 75 | 3.2 | 9.7 | 0.00 | 0.00 | 0.00 | 49 | 1016.3 |
| 20260506191516 | 18 | 75 | 3.2 | 9.7 | 0.00 | 0.00 | 0.00 | 49 | 1016.3 |
| 20260506191403 | 18 | 75 | 3.2 | 9.7 | 0.00 | 0.00 | 0.00 | 49 | 1016.3 |
| 20260506191317 | 18 | 75 | 3.2 | 9.7 | 0.00 | 0.00 | 0.00 | 49 | 1016.3 |
| 20260506191203 | 18 | 75 | 3.2 | 6.4 | 0.00 | 0.00 | 0.00 | 49 | 1016.3 |
| 20260506191116 | 18 | 75 | 4.8 | 9.7 | 0.00 | 0.00 | 0.00 | 48 | 1016.3 |
| 20260506191004 | 18 | 76 | 4.8 | 9.7 | 0.00 | 0.00 | 0.00 | 49 | 1016.3 |
| 20260506190916 | 18 | 76 | 4.8 | 9.7 | 0.00 | 0.00 | 0.00 | 49 | 1016.3 |
| 20260506190804 | 18 | 76 | 4.8 | 9.7 | 0.00 | 0.00 | 0.00 | 48 | 1016.2 |
| 20260506190716 | 18 | 76 | 4.8 | 9.7 | 0.00 | 0.00 | 0.00 | 48 | 1016.2 |
| 20260506190603 | 18 | 76 | 4.8 | 9.7 | 0.00 | 0.00 | 0.00 | 48 | 1016.2 |
| 20260506190516 | 18 | 76 | 4.8 | 9.7 | 0.00 | 0.00 | 0.00 | 48 | 1016.2 |
| 20260506190403 | 18 | 77 | 4.8 | 9.7 | 0.00 | 0.00 | 0.00 | 48 | 1016.2 |
| 20260506190317 | 18 | 80 | 3.2 | 9.7 | 0.00 | 0.00 | 0.00 | 48 | 1016.1 |
| 20260506190204 | 18 | 82 | 3.2 | 9.7 | 0.00 | 0.00 | 0.00 | 48 | 1016.1 |
| 20260506190117 | 18 | 85 | 3.2 | 9.7 | 0.00 | 0.00 | 0.00 | 48 | 1016.1 |
| 20260506190003 | 18 | 90 | 3.2 | 9.7 | 0.00 | 0.00 | 0.00 | 48 | 1016.1 |
| 20260506185916 | 18 | 90 | 3.2 | 9.7 | 0.00 | 0.00 | 0.00 | 48 | 1016.1 |
| 20260506185803 | 18 | 90 | 3.2 | 9.7 | 0.00 | 0.00 | 0.00 | 48 | 1016.1 |
| 20260506185716 | 18 | 90 | 3.2 | 9.7 | 0.00 | 0.00 | 0.00 | 48 | 1016.1 |
| 20260506185604 | 18 | 93 | 3.2 | 9.7 | 0.00 | 0.00 | 0.00 | 48 | 1016.0 |
| 20260506185516 | 18 | 97 | 3.2 | 9.7 | 0.00 | 0.00 | 0.00 | 47 | 1016.0 |
| 20260506185403 | 18 | 97 | 4.8 | 9.7 | 0.00 | 0.00 | 0.00 | 47 | 1016.0 |
| 20260506185316 | 18 | 88 | 4.8 | 9.7 | 0.00 | 0.00 | 0.00 | 47 | 1016.0 |
| 20260506185203 | 18 | 82 | 4.8 | 9.7 | 0.00 | 0.00 | 0.00 | 47 | 1016.0 |
| 20260506185117 | 18 | 74 | 6.4 | 9.7 | 0.00 | 0.00 | 0.00 | 47 | 1016.0 |
| 20260506185004 | 18 | 71 | 6.4 | 11.3 | 0.00 | 0.00 | 0.00 | 47 | 1015.9 |
| 20260506184916 | 18 | 72 | 6.4 | 11.3 | 0.00 | 0.00 | 0.00 | 47 | 1015.9 |
| 20260506184804 | 18 | 74 | 6.4 | 17.7 | 0.00 | 0.00 | 0.00 | 47 | 1015.9 |
| 20260506184717 | 18 | 76 | 6.4 | 17.7 | 0.00 | 0.00 | 0.00 | 48 | 1015.9 |
| 20260506184604 | 18 | 78 | 6.4 | 17.7 | 0.00 | 0.00 | 0.00 | 48 | 1015.9 |
| 20260506184516 | 18 | 79 | 8.0 | 17.7 | 0.00 | 0.00 | 0.00 | 48 | 1015.9 |
| 20260506184403 | 18 | 80 | 8.0 | 17.7 | 0.00 | 0.00 | 0.00 | 48 | 1015.9 |
| 20260506184317 | 18 | 82 | 8.0 | 17.7 | 0.00 | 0.00 | 0.00 | 48 | 1015.8 |
| 20260506184204 | 18 | 84 | 8.0 | 20.9 | 0.00 | 0.00 | 0.00 | 47 | 1015.8 |
| 20260506184117 | 18 | 85 | 8.0 | 20.9 | 0.00 | 0.00 | 0.00 | 47 | 1015.8 |
| 20260506184004 | 18 | 84 | 8.0 | 24.1 | 0.00 | 0.00 | 0.00 | 48 | 1015.8 |
| 20260506183916 | 18 | 85 | 8.0 | 24.1 | 0.00 | 0.00 | 0.00 | 48 | 1015.8 |
| 20260506183804 | 18 | 85 | 8.0 | 24.1 | 0.00 | 0.00 | 0.00 | 48 | 1015.7 |
| 20260506183717 | 18 | 85 | 8.0 | 24.1 | 0.00 | 0.00 | 0.00 | 48 | 1015.7 |
| 20260506183604 | 18 | 84 | 8.0 | 24.1 | 0.00 | 0.00 | 0.00 | 48 | 1015.7 |
| 20260506183516 | 18 | 84 | 8.0 | 24.1 | 0.00 | 0.00 | 0.00 | 48 | 1015.7 |
| 20260506183403 | 18 | 84 | 8.0 | 24.1 | 0.00 | 0.00 | 0.00 | 48 | 1015.7 |
| 20260506183317 | 18 | 83 | 8.0 | 24.1 | 0.00 | 0.00 | 0.00 | 48 | 1015.7 |
| 20260506183204 | 18 | 83 | 6.4 | 24.1 | 0.00 | 0.00 | 0.00 | 47 | 1015.6 |
| 20260506183117 | 18 | 83 | 6.4 | 24.1 | 0.00 | 0.00 | 0.00 | 47 | 1015.6 |
| 20260506183005 | 18 | 85 | 6.4 | 20.9 | 0.00 | 0.00 | 0.00 | 47 | 1015.6 |
| 20260506182917 | 18 | 85 | 6.4 | 20.9 | 0.00 | 0.00 | 0.00 | 47 | 1015.6 |
| 20260506182803 | 18 | 85 | 6.4 | 20.9 | 0.00 | 0.00 | 0.00 | 47 | 1015.6 |
| 20260506182716 | 18 | 86 | 6.4 | 17.7 | 0.00 | 0.00 | 0.00 | 47 | 1015.6 |
| 20260506182604 | 18 | 86 | 6.4 | 14.5 | 0.00 | 0.00 | 0.00 | 47 | 1015.5 |
| 20260506182516 | 18 | 86 | 6.4 | 14.5 | 0.00 | 0.00 | 0.00 | 47 | 1015.5 |
| 20260506182403 | 18 | 86 | 6.4 | 20.9 | 0.00 | 0.00 | 0.00 | 47 | 1015.5 |
| 20260506182317 | 18 | 86 | 6.4 | 20.9 | 0.00 | 0.00 | 0.00 | 47 | 1015.5 |
| 20260506182204 | 18 | 86 | 6.4 | 20.9 | 0.00 | 0.00 | 0.00 | 47 | 1015.5 |
| 20260506182117 | 18 | 86 | 6.4 | 20.9 | 0.00 | 0.00 | 0.00 | 47 | 1015.4 |
| 20260506182003 | 18 | 86 | 6.4 | 20.9 | 0.00 | 0.00 | 0.00 | 47 | 1015.4 |
| 20260506181917 | 18 | 86 | 6.4 | 20.9 | 0.00 | 0.00 | 0.00 | 47 | 1015.4 |
| 20260506181804 | 18 | 87 | 6.4 | 20.9 | 0.00 | 0.00 | 0.00 | 47 | 1015.4 |
| 20260506181717 | 18 | 87 | 6.4 | 20.9 | 0.00 | 0.00 | 0.00 | 47 | 1015.4 |
| 20260506181604 | 19 | 87 | 6.4 | 20.9 | 0.00 | 0.00 | 0.00 | 47 | 1015.4 |
| 20260506181517 | 19 | 87 | 8.0 | 20.9 | 0.00 | 0.00 | 0.00 | 47 | 1015.4 |
| 20260506181403 | 19 | 88 | 8.0 | 17.7 | 0.00 | 0.00 | 0.00 | 47 | 1015.4 |
| 20260506181316 | 19 | 88 | 8.0 | 17.7 | 0.00 | 0.00 | 0.00 | 47 | 1015.4 |
| 20260506181203 | 19 | 89 | 8.0 | 17.7 | 0.00 | 0.00 | 0.00 | 47 | 1015.4 |
| 20260506181117 | 19 | 88 | 8.0 | 20.9 | 0.00 | 0.00 | 0.00 | 47 | 1015.3 |
| 20260506181003 | 19 | 87 | 8.0 | 20.9 | 0.00 | 0.00 | 0.00 | 47 | 1015.3 |
| 20260506180917 | 19 | 86 | 8.0 | 24.1 | 0.00 | 0.00 | 0.00 | 47 | 1015.3 |
| 20260506180803 | 19 | 86 | 9.7 | 24.1 | 0.00 | 0.00 | 0.00 | 47 | 1015.4 |
| 20260506180716 | 19 | 86 | 9.7 | 24.1 | 0.00 | 0.00 | 0.00 | 47 | 1015.3 |
| 20260506180604 | 19 | 86 | 9.7 | 24.1 | 0.00 | 0.00 | 0.00 | 47 | 1015.3 |
| 20260506180516 | 19 | 85 | 9.7 | 24.1 | 0.00 | 0.00 | 0.00 | 47 | 1015.3 |
| 20260506180403 | 19 | 85 | 8.0 | 24.1 | 0.00 | 0.00 | 0.00 | 47 | 1015.3 |
| 20260506180317 | 19 | 84 | 8.0 | 24.1 | 0.00 | 0.00 | 0.00 | 47 | 1015.3 |
| 20260506180203 | 19 | 84 | 8.0 | 24.1 | 0.00 | 0.00 | 0.00 | 47 | 1015.3 |
| 20260506180116 | 19 | 84 | 8.0 | 24.1 | 0.00 | 0.00 | 0.00 | 47 | 1015.2 |
| 20260506180005 | 19 | 84 | 8.0 | 24.1 | 0.00 | 0.00 | 0.00 | 47 | 1015.2 |
| 20260506175917 | 19 | 84 | 8.0 | 20.9 | 0.00 | 0.00 | 0.00 | 47 | 1015.3 |
| 20260506175804 | 19 | 83 | 8.0 | 20.9 | 0.00 | 0.00 | 0.00 | 46 | 1015.2 |
| 20260506175716 | 19 | 84 | 8.0 | 20.9 | 0.00 | 0.00 | 0.00 | 46 | 1015.2 |
| 20260506175604 | 19 | 84 | 8.0 | 20.9 | 0.00 | 0.00 | 0.00 | 46 | 1015.2 |
| 20260506175517 | 19 | 84 | 8.0 | 20.9 | 0.00 | 0.00 | 0.00 | 46 | 1015.2 |
| 20260506175404 | 19 | 84 | 8.0 | 20.9 | 0.00 | 0.00 | 0.00 | 46 | 1015.2 |
| 20260506175317 | 19 | 83 | 8.0 | 20.9 | 0.00 | 0.00 | 0.00 | 46 | 1015.2 |
| 20260506175203 | 19 | 82 | 8.0 | 20.9 | 0.00 | 0.00 | 0.00 | 46 | 1015.2 |
| 20260506175116 | 19 | 82 | 8.0 | 20.9 | 0.00 | 0.00 | 0.00 | 46 | 1015.2 |
| 20260506175004 | 19 | 82 | 8.0 | 20.9 | 0.00 | 0.00 | 0.00 | 46 | 1015.2 |
| 20260506174917 | 20 | 82 | 8.0 | 20.9 | 0.00 | 0.00 | 0.00 | 46 | 1015.2 |
| 20260506174804 | 20 | 82 | 8.0 | 20.9 | 0.00 | 0.00 | 0.00 | 46 | 1015.2 |
| 20260506174717 | 20 | 81 | 8.0 | 20.9 | 0.00 | 0.00 | 0.00 | 46 | 1015.2 |
| 20260506174604 | 20 | 81 | 8.0 | 20.9 | 0.00 | 0.00 | 0.00 | 46 | 1015.2 |
| 20260506174516 | 20 | 81 | 8.0 | 20.9 | 0.00 | 0.00 | 0.00 | 46 | 1015.2 |
| 20260506174403 | 20 | 81 | 8.0 | 20.9 | 0.00 | 0.00 | 0.00 | 46 | 1015.2 |
| 20260506174317 | 20 | 81 | 8.0 | 20.9 | 0.00 | 0.00 | 0.00 | 46 | 1015.2 |
| 20260506174204 | 20 | 82 | 8.0 | 17.7 | 0.00 | 0.00 | 0.00 | 46 | 1015.1 |
| 20260506174117 | 20 | 83 | 8.0 | 17.7 | 0.00 | 0.00 | 0.00 | 46 | 1015.2 |
| 20260506174003 | 20 | 82 | 8.0 | 17.7 | 0.00 | 0.00 | 0.00 | 46 | 1015.1 |
| 20260506173917 | 20 | 82 | 8.0 | 17.7 | 0.00 | 0.00 | 0.00 | 46 | 1015.2 |
| 20260506173804 | 20 | 82 | 8.0 | 17.7 | 0.00 | 0.00 | 0.00 | 46 | 1015.1 |
| 20260506173717 | 20 | 82 | 8.0 | 17.7 | 0.00 | 0.00 | 0.00 | 47 | 1015.1 |
| 20260506173604 | 20 | 82 | 8.0 | 17.7 | 0.00 | 0.00 | 0.00 | 47 | 1015.1 |
| 20260506173517 | 20 | 82 | 8.0 | 17.7 | 0.00 | 0.00 | 0.00 | 47 | 1015.1 |
| 20260506173404 | 20 | 82 | 8.0 | 17.7 | 0.00 | 0.00 | 0.00 | 47 | 1015.1 |
| 20260506173316 | 20 | 83 | 8.0 | 20.9 | 0.00 | 0.00 | 0.00 | 47 | 1015.2 |
| 20260506173203 | 20 | 82 | 8.0 | 20.9 | 0.00 | 0.00 | 0.00 | 47 | 1015.1 |
| 20260506173117 | 20 | 82 | 8.0 | 24.1 | 0.00 | 0.00 | 0.00 | 47 | 1015.2 |
| 20260506173004 | 20 | 82 | 8.0 | 24.1 | 0.00 | 0.00 | 0.00 | 47 | 1015.2 |
| 20260506172916 | 20 | 82 | 8.0 | 24.1 | 0.00 | 0.00 | 0.00 | 47 | 1015.1 |
| 20260506172803 | 20 | 83 | 8.0 | 24.1 | 0.00 | 0.00 | 0.00 | 47 | 1015.1 |
| 20260506172717 | 20 | 83 | 8.0 | 24.1 | 0.00 | 0.00 | 0.00 | 47 | 1015.1 |
| 20260506172603 | 20 | 82 | 8.0 | 24.1 | 0.00 | 0.00 | 0.00 | 47 | 1015.2 |
| 20260506172516 | 20 | 82 | 8.0 | 24.1 | 0.00 | 0.00 | 0.00 | 47 | 1015.1 |
| 20260506172404 | 20 | 82 | 8.0 | 24.1 | 0.00 | 0.00 | 0.00 | 46 | 1015.2 |
| 20260506172317 | 20 | 81 | 8.0 | 24.1 | 0.00 | 0.00 | 0.00 | 46 | 1015.2 |
| 20260506172204 | 20 | 82 | 6.4 | 24.1 | 0.00 | 0.00 | 0.00 | 46 | 1015.1 |
| 20260506172117 | 20 | 82 | 6.4 | 17.7 | 0.00 | 0.00 | 0.00 | 46 | 1015.1 |
| 20260506172004 | 20 | 84 | 6.4 | 17.7 | 0.00 | 0.00 | 0.00 | 45 | 1015.1 |
| 20260506171917 | 20 | 84 | 6.4 | 17.7 | 0.00 | 0.00 | 0.00 | 45 | 1015.1 |
| 20260506171803 | 20 | 84 | 6.4 | 17.7 | 0.00 | 0.00 | 0.00 | 44 | 1015.1 |
| 20260506171717 | 20 | 84 | 6.4 | 17.7 | 0.00 | 0.00 | 0.00 | 44 | 1015.1 |
| 20260506171604 | 20 | 84 | 6.4 | 17.7 | 0.00 | 0.00 | 0.00 | 43 | 1015.1 |
| 20260506171518 | 20 | 86 | 6.4 | 14.5 | 0.00 | 0.00 | 0.00 | 43 | 1015.1 |
| 20260506171404 | 21 | 89 | 4.8 | 14.5 | 0.00 | 0.00 | 0.00 | 43 | 1015.1 |
| 20260506171317 | 21 | 90 | 4.8 | 14.5 | 0.00 | 0.00 | 0.00 | 42 | 1015.0 |
| 20260506171203 | 21 | 91 | 4.8 | 14.5 | 0.00 | 0.00 | 0.00 | 42 | 1015.1 |
| 20260506171117 | 21 | 93 | 4.8 | 14.5 | 0.00 | 0.00 | 0.00 | 42 | 1015.1 |
| 20260506171003 | 21 | 93 | 4.8 | 14.5 | 0.00 | 0.00 | 0.00 | 41 | 1015.1 |
| 20260506170917 | 21 | 96 | 4.8 | 14.5 | 0.00 | 0.00 | 0.00 | 41 | 1015.1 |
| 20260506170804 | 21 | 98 | 4.8 | 14.5 | 0.00 | 0.00 | 0.00 | 41 | 1015.1 |
| 20260506170717 | 21 | 102 | 4.8 | 14.5 | 0.00 | 0.00 | 0.00 | 41 | 1015.1 |
| 20260506170604 | 21 | 109 | 4.8 | 9.7 | 0.00 | 0.00 | 0.00 | 40 | 1015.1 |
| 20260506170516 | 21 | 109 | 4.8 | 9.7 | 0.00 | 0.00 | 0.00 | 40 | 1015.1 |
| 20260506170403 | 21 | 111 | 4.8 | 9.7 | 0.00 | 0.00 | 0.00 | 40 | 1015.1 |
| 20260506170317 | 21 | 112 | 4.8 | 9.7 | 0.00 | 0.00 | 0.00 | 40 | 1015.1 |
| 20260506170204 | 21 | 114 | 4.8 | 9.7 | 0.00 | 0.00 | 0.00 | 40 | 1015.1 |
| 20260506170116 | 21 | 116 | 4.8 | 9.7 | 0.00 | 0.00 | 0.00 | 40 | 1015.1 |
| 20260506170004 | 21 | 117 | 4.8 | 9.7 | 0.00 | 0.00 | 0.00 | 41 | 1015.1 |
| 20260506165917 | 21 | 121 | 4.8 | 9.7 | 0.00 | 0.00 | 0.00 | 41 | 1015.1 |
| 20260506165804 | 21 | 126 | 4.8 | 9.7 | 0.00 | 0.00 | 0.00 | 41 | 1015.1 |
| 20260506165716 | 21 | 128 | 4.8 | 9.7 | 0.00 | 0.00 | 0.00 | 41 | 1015.1 |
| 20260506165604 | 21 | 128 | 4.8 | 9.7 | 0.00 | 0.00 | 0.00 | 41 | 1015.1 |
| 20260506165517 | 21 | 125 | 4.8 | 9.7 | 0.00 | 0.00 | 0.00 | 41 | 1015.1 |
| 20260506165404 | 21 | 126 | 4.8 | 9.7 | 0.00 | 0.00 | 0.00 | 42 | 1015.1 |
| 20260506165317 | 21 | 129 | 4.8 | 9.7 | 0.00 | 0.00 | 0.00 | 42 | 1015.1 |
| 20260506165204 | 22 | 133 | 4.8 | 11.3 | 0.00 | 0.00 | 0.00 | 42 | 1015.1 |
| 20260506165117 | 22 | 133 | 3.2 | 11.3 | 0.00 | 0.00 | 0.00 | 42 | 1015.2 |
| 20260506165003 | 22 | 133 | 3.2 | 11.3 | 0.00 | 0.00 | 0.00 | 42 | 1015.1 |
| 20260506164917 | 22 | 131 | 3.2 | 11.3 | 0.00 | 0.00 | 0.00 | 43 | 1015.1 |
| 20260506164804 | 22 | 130 | 3.2 | 11.3 | 0.00 | 0.00 | 0.00 | 44 | 1015.2 |
| 20260506164716 | 22 | 130 | 3.2 | 11.3 | 0.00 | 0.00 | 0.00 | 43 | 1015.2 |
| 20260506164603 | 22 | 132 | 3.2 | 11.3 | 0.00 | 0.00 | 0.00 | 44 | 1015.1 |
| 20260506164517 | 22 | 134 | 3.2 | 11.3 | 0.00 | 0.00 | 0.00 | 44 | 1015.2 |
| 20260506164404 | 22 | 137 | 3.2 | 11.3 | 0.00 | 0.00 | 0.00 | 44 | 1015.2 |
| 20260506164316 | 22 | 144 | 3.2 | 11.3 | 0.00 | 0.00 | 0.00 | 44 | 1015.2 |
| 20260506164203 | 22 | 159 | 4.8 | 11.3 | 0.00 | 0.00 | 0.00 | 46 | 1015.2 |
| 20260506164117 | 22 | 173 | 4.8 | 9.7 | 0.00 | 0.00 | 0.00 | 46 | 1015.2 |
| 20260506164004 | 22 | 183 | 4.8 | 9.7 | 0.00 | 0.00 | 0.00 | 46 | 1015.2 |
| 20260506163917 | 22 | 186 | 4.8 | 9.7 | 0.00 | 0.00 | 0.00 | 45 | 1015.2 |
| 20260506163803 | 22 | 186 | 4.8 | 9.7 | 0.00 | 0.00 | 0.00 | 45 | 1015.3 |
| 20260506163717 | 22 | 186 | 4.8 | 9.7 | 0.00 | 0.00 | 0.00 | 45 | 1015.2 |
| 20260506163604 | 21 | 190 | 4.8 | 9.7 | 0.00 | 0.00 | 0.00 | 46 | 1015.2 |
| 20260506163517 | 21 | 193 | 4.8 | 11.3 | 0.00 | 0.00 | 0.00 | 46 | 1015.2 |
| 20260506163404 | 21 | 190 | 4.8 | 11.3 | 0.00 | 0.00 | 0.00 | 46 | 1015.2 |
| 20260506163317 | 21 | 187 | 4.8 | 11.3 | 0.00 | 0.00 | 0.00 | 46 | 1015.2 |
| 20260506163204 | 22 | 182 | 6.4 | 11.3 | 0.00 | 0.00 | 0.00 | 46 | 1015.2 |
| 20260506163117 | 22 | 181 | 6.4 | 11.3 | 0.00 | 0.00 | 0.00 | 46 | 1015.2 |
| 20260506163004 | 22 | 178 | 6.4 | 11.3 | 0.00 | 0.00 | 0.00 | 46 | 1015.2 |
| 20260506162916 | 22 | 178 | 6.4 | 11.3 | 0.00 | 0.00 | 0.00 | 46 | 1015.2 |
| 20260506162803 | 22 | 178 | 6.4 | 11.3 | 0.00 | 0.00 | 0.00 | 46 | 1015.2 |
| 20260506162717 | 22 | 178 | 6.4 | 11.3 | 0.00 | 0.00 | 0.00 | 46 | 1015.3 |
| 20260506162604 | 22 | 181 | 6.4 | 14.5 | 0.00 | 0.00 | 0.00 | 46 | 1015.3 |
| 20260506162517 | 22 | 182 | 6.4 | 14.5 | 0.00 | 0.00 | 0.00 | 46 | 1015.2 |
| 20260506162403 | 22 | 183 | 6.4 | 14.5 | 0.00 | 0.00 | 0.00 | 47 | 1015.3 |
| 20260506162316 | 22 | 184 | 8.0 | 14.5 | 0.00 | 0.00 | 0.00 | 47 | 1015.3 |
| 20260506162204 | 22 | 186 | 8.0 | 14.5 | 0.00 | 0.00 | 0.00 | 47 | 1015.3 |
| 20260506162117 | 22 | 185 | 8.0 | 14.5 | 0.00 | 0.00 | 0.00 | 47 | 1015.3 |
| 20260506162003 | 22 | 184 | 8.0 | 14.5 | 0.00 | 0.00 | 0.00 | 47 | 1015.2 |
| 20260506161917 | 22 | 183 | 8.0 | 17.7 | 0.00 | 0.00 | 0.00 | 46 | 1015.3 |
| 20260506161804 | 22 | 187 | 8.0 | 17.7 | 0.00 | 0.00 | 0.00 | 47 | 1015.3 |
| 20260506161716 | 22 | 185 | 8.0 | 17.7 | 0.00 | 0.00 | 0.00 | 47 | 1015.3 |
| 20260506161604 | 22 | 185 | 9.7 | 17.7 | 0.00 | 0.00 | 0.00 | 48 | 1015.3 |
| 20260506161517 | 22 | 185 | 9.7 | 20.9 | 0.00 | 0.00 | 0.00 | 48 | 1015.3 |
| 20260506161403 | 22 | 186 | 9.7 | 20.9 | 0.00 | 0.00 | 0.00 | 48 | 1015.3 |
| 20260506161317 | 22 | 184 | 11.3 | 29.0 | 0.00 | 0.00 | 0.00 | 49 | 1015.3 |
| 20260506161203 | 22 | 184 | 11.3 | 29.0 | 0.00 | 0.00 | 0.00 | 49 | 1015.3 |
| 20260506161116 | 22 | 185 | 11.3 | 29.0 | 0.00 | 0.00 | 0.00 | 49 | 1015.3 |
| 20260506161004 | 22 | 183 | 11.3 | 29.0 | 0.00 | 0.00 | 0.00 | 49 | 1015.3 |
| 20260506160917 | 22 | 184 | 11.3 | 29.0 | 0.00 | 0.00 | 0.00 | 48 | 1015.3 |
| 20260506160803 | 22 | 183 | 12.9 | 29.0 | 0.00 | 0.00 | 0.00 | 48 | 1015.3 |
| 20260506160716 | 22 | 188 | 12.9 | 29.0 | 0.00 | 0.00 | 0.00 | 48 | 1015.3 |
| 20260506160603 | 22 | 192 | 12.9 | 29.0 | 0.00 | 0.00 | 0.00 | 47 | 1015.3 |
| 20260506160517 | 22 | 193 | 12.9 | 29.0 | 0.00 | 0.00 | 0.00 | 47 | 1015.3 |
| 20260506160404 | 22 | 197 | 12.9 | 29.0 | 0.00 | 0.00 | 0.00 | 47 | 1015.3 |
| 20260506160317 | 22 | 201 | 12.9 | 29.0 | 0.00 | 0.00 | 0.00 | 47 | 1015.3 |
| 20260506160204 | 22 | 205 | 12.9 | 29.0 | 0.00 | 0.00 | 0.00 | 47 | 1015.3 |
| 20260506160117 | 22 | 207 | 12.9 | 29.0 | 0.00 | 0.00 | 0.00 | 47 | 1015.3 |
| 20260506160003 | 22 | 209 | 12.9 | 29.0 | 0.00 | 0.00 | 0.00 | 47 | 1015.3 |
| 20260506155916 | 22 | 209 | 11.3 | 29.0 | 0.00 | 0.00 | 0.00 | 48 | 1015.3 |
| 20260506155804 | 22 | 210 | 11.3 | 29.0 | 0.00 | 0.00 | 0.00 | 47 | 1015.3 |
| 20260506155717 | 22 | 211 | 11.3 | 29.0 | 0.00 | 0.00 | 0.00 | 48 | 1015.3 |
| 20260506155603 | 22 | 212 | 9.7 | 27.4 | 0.00 | 0.00 | 0.00 | 48 | 1015.3 |
| 20260506155517 | 22 | 213 | 9.7 | 27.4 | 0.00 | 0.00 | 0.00 | 49 | 1015.3 |
| 20260506155404 | 22 | 214 | 9.7 | 24.1 | 0.00 | 0.00 | 0.00 | 49 | 1015.3 |
| 20260506155317 | 22 | 214 | 9.7 | 24.1 | 0.00 | 0.00 | 0.00 | 49 | 1015.3 |
| 20260506155203 | 22 | 215 | 9.7 | 24.1 | 0.00 | 0.00 | 0.00 | 48 | 1015.3 |
| 20260506155117 | 22 | 216 | 9.7 | 24.1 | 0.00 | 0.00 | 0.00 | 48 | 1015.3 |
| 20260506155004 | 22 | 218 | 9.7 | 24.1 | 0.00 | 0.00 | 0.00 | 49 | 1015.3 |
| 20260506154917 | 22 | 220 | 9.7 | 20.9 | 0.00 | 0.00 | 0.00 | 49 | 1015.4 |
| 20260506154804 | 22 | 222 | 9.7 | 20.9 | 0.00 | 0.00 | 0.00 | 50 | 1015.4 |
| 20260506154717 | 22 | 221 | 9.7 | 17.7 | 0.00 | 0.00 | 0.00 | 50 | 1015.3 |
| 20260506154604 | 22 | 219 | 9.7 | 17.7 | 0.00 | 0.00 | 0.00 | 50 | 1015.3 |
| 20260506154517 | 22 | 215 | 9.7 | 17.7 | 0.00 | 0.00 | 0.00 | 50 | 1015.3 |
| 20260506154404 | 22 | 212 | 9.7 | 20.9 | 0.00 | 0.00 | 0.00 | 50 | 1015.3 |
| 20260506154317 | 22 | 212 | 9.7 | 20.9 | 0.00 | 0.00 | 0.00 | 50 | 1015.3 |
| 20260506154204 | 22 | 212 | 9.7 | 20.9 | 0.00 | 0.00 | 0.00 | 50 | 1015.3 |
| 20260506154117 | 22 | 211 | 9.7 | 20.9 | 0.00 | 0.00 | 0.00 | 50 | 1015.3 |
| 20260506154004 | 22 | 211 | 9.7 | 20.9 | 0.00 | 0.00 | 0.00 | 49 | 1015.3 |
| 20260506153917 | 22 | 212 | 9.7 | 20.9 | 0.00 | 0.00 | 0.00 | 49 | 1015.4 |
| 20260506153804 | 22 | 211 | 9.7 | 20.9 | 0.00 | 0.00 | 0.00 | 50 | 1015.4 |
| 20260506153717 | 22 | 211 | 9.7 | 20.9 | 0.00 | 0.00 | 0.00 | 50 | 1015.4 |
| 20260506153604 | 22 | 209 | 9.7 | 29.0 | 0.00 | 0.00 | 0.00 | 49 | 1015.4 |
| 20260506153517 | 22 | 209 | 9.7 | 29.0 | 0.00 | 0.00 | 0.00 | 49 | 1015.4 |
| 20260506153403 | 22 | 208 | 9.7 | 29.0 | 0.00 | 0.00 | 0.00 | 50 | 1015.3 |
| 20260506153317 | 22 | 204 | 9.7 | 29.0 | 0.00 | 0.00 | 0.00 | 49 | 1015.4 |
| 20260506153204 | 22 | 198 | 9.7 | 29.0 | 0.00 | 0.00 | 0.00 | 48 | 1015.4 |
| 20260506153116 | 22 | 195 | 9.7 | 29.0 | 0.00 | 0.00 | 0.00 | 47 | 1015.4 |
| 20260506153003 | 22 | 196 | 9.7 | 29.0 | 0.00 | 0.00 | 0.00 | 47 | 1015.4 |
| 20260506152917 | 22 | 195 | 9.7 | 29.0 | 0.00 | 0.00 | 0.00 | 46 | 1015.4 |
| 20260506152804 | 22 | 191 | 9.7 | 29.0 | 0.00 | 0.00 | 0.00 | 46 | 1015.4 |
| 20260506152717 | 22 | 190 | 11.3 | 29.0 | 0.00 | 0.00 | 0.00 | 46 | 1015.5 |
| 20260506152604 | 22 | 194 | 11.3 | 27.4 | 0.00 | 0.00 | 0.00 | 46 | 1015.4 |
| 20260506152517 | 22 | 197 | 11.3 | 27.4 | 0.00 | 0.00 | 0.00 | 46 | 1015.4 |
| 20260506152403 | 22 | 200 | 12.9 | 27.4 | 0.00 | 0.00 | 0.00 | 46 | 1015.5 |
| 20260506152318 | 22 | 201 | 12.9 | 27.4 | 0.00 | 0.00 | 0.00 | 47 | 1015.4 |
| 20260506152204 | 22 | 206 | 12.9 | 27.4 | 0.00 | 0.00 | 0.00 | 47 | 1015.5 |
| 20260506152117 | 22 | 209 | 14.5 | 27.4 | 0.00 | 0.00 | 0.00 | 47 | 1015.5 |
| 20260506152004 | 22 | 206 | 14.5 | 32.2 | 0.00 | 0.00 | 0.00 | 47 | 1015.5 |
| 20260506151916 | 22 | 206 | 14.5 | 32.2 | 0.00 | 0.00 | 0.00 | 46 | 1015.4 |
| 20260506151803 | 22 | 205 | 14.5 | 32.2 | 0.00 | 0.00 | 0.00 | 47 | 1015.5 |
| 20260506151717 | 22 | 203 | 14.5 | 32.2 | 0.00 | 0.00 | 0.00 | 46 | 1015.5 |
| 20260506151604 | 22 | 202 | 14.5 | 32.2 | 0.00 | 0.00 | 0.00 | 47 | 1015.5 |
| 20260506151517 | 22 | 200 | 14.5 | 32.2 | 0.00 | 0.00 | 0.00 | 47 | 1015.5 |
| 20260506151403 | 22 | 200 | 14.5 | 32.2 | 0.00 | 0.00 | 0.00 | 46 | 1015.5 |
| 20260506151317 | 22 | 198 | 16.1 | 32.2 | 0.00 | 0.00 | 0.00 | 45 | 1015.5 |
| 20260506151204 | 22 | 197 | 14.5 | 32.2 | 0.00 | 0.00 | 0.00 | 46 | 1015.6 |
| 20260506151117 | 22 | 195 | 14.5 | 32.2 | 0.00 | 0.00 | 0.00 | 47 | 1015.6 |
| 20260506151003 | 22 | 196 | 16.1 | 29.0 | 0.00 | 0.00 | 0.00 | 47 | 1015.6 |
| 20260506150916 | 22 | 195 | 16.1 | 29.0 | 0.00 | 0.00 | 0.00 | 46 | 1015.5 |
| 20260506150804 | 22 | 196 | 16.1 | 29.0 | 0.00 | 0.00 | 0.00 | 47 | 1015.5 |
| 20260506150717 | 22 | 197 | 16.1 | 32.2 | 0.00 | 0.00 | 0.00 | 47 | 1015.5 |
| 20260506150604 | 22 | 197 | 16.1 | 32.2 | 0.00 | 0.00 | 0.00 | 47 | 1015.5 |
| 20260506150517 | 22 | 199 | 16.1 | 32.2 | 0.00 | 0.00 | 0.00 | 47 | 1015.5 |
| 20260506150404 | 22 | 198 | 14.5 | 32.2 | 0.00 | 0.00 | 0.00 | 46 | 1015.5 |
| 20260506150317 | 22 | 201 | 14.5 | 32.2 | 0.00 | 0.00 | 0.00 | 46 | 1015.5 |
| 20260506150204 | 22 | 201 | 14.5 | 32.2 | 0.00 | 0.00 | 0.00 | 46 | 1015.6 |
| 20260506150117 | 22 | 202 | 14.5 | 32.2 | 0.00 | 0.00 | 0.00 | 47 | 1015.6 |
| 20260506150004 | 22 | 200 | 12.9 | 32.2 | 0.00 | 0.00 | 0.00 | 47 | 1015.6 |
| 20260506145917 | 22 | 201 | 12.9 | 32.2 | 0.00 | 0.00 | 0.00 | 46 | 1015.6 |
| 20260506145804 | 22 | 204 | 11.3 | 32.2 | 0.00 | 0.00 | 0.00 | 46 | 1015.5 |
| 20260506145717 | 22 | 207 | 11.3 | 32.2 | 0.00 | 0.00 | 0.00 | 46 | 1015.6 |
| 20260506145604 | 22 | 209 | 11.3 | 32.2 | 0.00 | 0.00 | 0.00 | 46 | 1015.5 |
| 20260506145517 | 22 | 211 | 11.3 | 32.2 | 0.00 | 0.00 | 0.00 | 46 | 1015.5 |
| 20260506145404 | 22 | 216 | 11.3 | 32.2 | 0.00 | 0.00 | 0.00 | 45 | 1015.6 |
| 20260506145317 | 22 | 217 | 11.3 | 32.2 | 0.00 | 0.00 | 0.00 | 46 | 1015.5 |
| 20260506145204 | 22 | 223 | 11.3 | 32.2 | 0.00 | 0.00 | 0.00 | 46 | 1015.5 |
| 20260506145117 | 22 | 227 | 11.3 | 32.2 | 0.00 | 0.00 | 0.00 | 46 | 1015.5 |
| 20260506145004 | 22 | 229 | 11.3 | 27.4 | 0.00 | 0.00 | 0.00 | 49 | 1015.5 |
| 20260506144917 | 22 | 224 | 12.9 | 27.4 | 0.00 | 0.00 | 0.00 | 50 | 1015.5 |
| 20260506144804 | 22 | 221 | 12.9 | 27.4 | 0.00 | 0.00 | 0.00 | 50 | 1015.6 |
| 20260506144717 | 22 | 220 | 12.9 | 27.4 | 0.00 | 0.00 | 0.00 | 50 | 1015.5 |
| 20260506144604 | 22 | 219 | 12.9 | 27.4 | 0.00 | 0.00 | 0.00 | 50 | 1015.5 |
| 20260506144517 | 22 | 217 | 12.9 | 27.4 | 0.00 | 0.00 | 0.00 | 49 | 1015.5 |
| 20260506144404 | 22 | 214 | 12.9 | 27.4 | 0.00 | 0.00 | 0.00 | 49 | 1015.6 |
| 20260506144317 | 22 | 208 | 12.9 | 35.4 | 0.00 | 0.00 | 0.00 | 48 | 1015.5 |
| 20260506144203 | 22 | 202 | 12.9 | 35.4 | 0.00 | 0.00 | 0.00 | 47 | 1015.6 |
| 20260506144117 | 22 | 203 | 11.3 | 35.4 | 0.00 | 0.00 | 0.00 | 46 | 1015.5 |
| 20260506144004 | 22 | 205 | 11.3 | 35.4 | 0.00 | 0.00 | 0.00 | 46 | 1015.6 |
| 20260506143917 | 22 | 206 | 11.3 | 35.4 | 0.00 | 0.00 | 0.00 | 47 | 1015.6 |
| 20260506143804 | 22 | 207 | 11.3 | 35.4 | 0.00 | 0.00 | 0.00 | 46 | 1015.6 |
| 20260506143716 | 22 | 206 | 11.3 | 35.4 | 0.00 | 0.00 | 0.00 | 46 | 1015.6 |
| 20260506143604 | 23 | 206 | 11.3 | 35.4 | 0.00 | 0.00 | 0.00 | 46 | 1015.6 |
| 20260506143517 | 23 | 206 | 11.3 | 35.4 | 0.00 | 0.00 | 0.00 | 47 | 1015.7 |
| 20260506143404 | 23 | 206 | 11.3 | 35.4 | 0.00 | 0.00 | 0.00 | 46 | 1015.6 |
| 20260506143317 | 23 | 211 | 11.3 | 29.0 | 0.00 | 0.00 | 0.00 | 47 | 1015.6 |
| 20260506143204 | 22 | 218 | 11.3 | 24.1 | 0.00 | 0.00 | 0.00 | 48 | 1015.6 |
| 20260506143117 | 23 | 215 | 11.3 | 27.4 | 0.00 | 0.00 | 0.00 | 48 | 1015.7 |
| 20260506143004 | 23 | 212 | 12.9 | 29.0 | 0.00 | 0.00 | 0.00 | 48 | 1015.7 |
| 20260506142917 | 23 | 210 | 12.9 | 29.0 | 0.00 | 0.00 | 0.00 | 48 | 1015.7 |
| 20260506142804 | 23 | 205 | 12.9 | 29.0 | 0.00 | 0.00 | 0.00 | 48 | 1015.7 |
| 20260506142717 | 23 | 202 | 12.9 | 29.0 | 0.00 | 0.00 | 0.00 | 48 | 1015.7 |
| 20260506142604 | 23 | 200 | 12.9 | 29.0 | 0.00 | 0.00 | 0.00 | 48 | 1015.6 |
| 20260506142517 | 23 | 199 | 14.5 | 29.0 | 0.00 | 0.00 | 0.00 | 48 | 1015.7 |
| 20260506142404 | 23 | 197 | 14.5 | 32.2 | 0.00 | 0.00 | 0.00 | 48 | 1015.7 |
| 20260506142317 | 23 | 195 | 14.5 | 32.2 | 0.00 | 0.00 | 0.00 | 48 | 1015.7 |
| 20260506142204 | 23 | 194 | 14.5 | 32.2 | 0.00 | 0.00 | 0.00 | 47 | 1015.7 |
| 20260506142117 | 23 | 194 | 14.5 | 32.2 | 0.00 | 0.00 | 0.00 | 47 | 1015.7 |
| 20260506142003 | 23 | 194 | 14.5 | 32.2 | 0.00 | 0.00 | 0.00 | 46 | 1015.7 |
| 20260506141917 | 23 | 192 | 14.5 | 38.6 | 0.00 | 0.00 | 0.00 | 46 | 1015.7 |
| 20260506141804 | 23 | 196 | 14.5 | 38.6 | 0.00 | 0.00 | 0.00 | 48 | 1015.7 |
| 20260506141717 | 23 | 198 | 14.5 | 38.6 | 0.00 | 0.00 | 0.00 | 47 | 1015.8 |
| 20260506141605 | 23 | 200 | 14.5 | 38.6 | 0.00 | 0.00 | 0.00 | 47 | 1015.8 |
| 20260506141517 | 23 | 200 | 14.5 | 38.6 | 0.00 | 0.00 | 0.00 | 47 | 1015.8 |
| 20260506141404 | 23 | 205 | 14.5 | 38.6 | 0.00 | 0.00 | 0.00 | 48 | 1015.7 |
| 20260506141317 | 23 | 204 | 14.5 | 38.6 | 0.00 | 0.00 | 0.00 | 48 | 1015.8 |
| 20260506141204 | 23 | 205 | 14.5 | 38.6 | 0.00 | 0.00 | 0.00 | 46 | 1015.7 |
| 20260506141117 | 23 | 207 | 14.5 | 38.6 | 0.00 | 0.00 | 0.00 | 46 | 1015.8 |
| 20260506141004 | 23 | 208 | 14.5 | 38.6 | 0.00 | 0.00 | 0.00 | 47 | 1015.8 |
| 20260506140917 | 23 | 211 | 14.5 | 35.4 | 0.00 | 0.00 | 0.00 | 47 | 1015.8 |
| 20260506140804 | 23 | 210 | 14.5 | 35.4 | 0.00 | 0.00 | 0.00 | 48 | 1015.8 |
| 20260506140717 | 23 | 209 | 14.5 | 35.4 | 0.00 | 0.00 | 0.00 | 48 | 1015.8 |
| 20260506140604 | 23 | 204 | 14.5 | 35.4 | 0.00 | 0.00 | 0.00 | 47 | 1015.8 |
| 20260506140518 | 23 | 203 | 14.5 | 35.4 | 0.00 | 0.00 | 0.00 | 46 | 1015.8 |
| 20260506140403 | 23 | 200 | 14.5 | 35.4 | 0.00 | 0.00 | 0.00 | 46 | 1015.8 |
| 20260506140317 | 23 | 204 | 14.5 | 29.0 | 0.00 | 0.00 | 0.00 | 45 | 1015.8 |
| 20260506140204 | 23 | 204 | 14.5 | 29.0 | 0.00 | 0.00 | 0.00 | 46 | 1015.8 |
| 20260506140117 | 23 | 205 | 14.5 | 29.0 | 0.00 | 0.00 | 0.00 | 45 | 1015.8 |
| 20260506140004 | 23 | 207 | 14.5 | 29.0 | 0.00 | 0.00 | 0.00 | 45 | 1015.8 |
| 20260506135917 | 23 | 208 | 14.5 | 29.0 | 0.00 | 0.00 | 0.00 | 44 | 1015.8 |
| 20260506135803 | 23 | 211 | 14.5 | 29.0 | 0.00 | 0.00 | 0.00 | 45 | 1015.8 |
| 20260506135717 | 23 | 210 | 14.5 | 29.0 | 0.00 | 0.00 | 0.00 | 44 | 1015.8 |
| 20260506135604 | 23 | 212 | 14.5 | 29.0 | 0.00 | 0.00 | 0.00 | 46 | 1015.8 |
| 20260506135516 | 23 | 214 | 14.5 | 29.0 | 0.00 | 0.00 | 0.00 | 47 | 1015.8 |
| 20260506135404 | 23 | 216 | 14.5 | 29.0 | 0.00 | 0.00 | 0.00 | 46 | 1015.8 |
| 20260506135317 | 23 | 216 | 14.5 | 29.0 | 0.00 | 0.00 | 0.00 | 46 | 1015.8 |
| 20260506135204 | 23 | 216 | 14.5 | 29.0 | 0.00 | 0.00 | 0.00 | 47 | 1015.8 |
| 20260506135117 | 23 | 215 | 14.5 | 29.0 | 0.00 | 0.00 | 0.00 | 48 | 1015.8 |
| 20260506135004 | 23 | 217 | 14.5 | 29.0 | 0.00 | 0.00 | 0.00 | 47 | 1015.8 |
| 20260506134917 | 23 | 217 | 14.5 | 29.0 | 0.00 | 0.00 | 0.00 | 47 | 1015.8 |
| 20260506134805 | 23 | 217 | 16.1 | 29.0 | 0.00 | 0.00 | 0.00 | 46 | 1015.8 |
| 20260506134717 | 23 | 220 | 16.1 | 29.0 | 0.00 | 0.00 | 0.00 | 47 | 1015.7 |
| 20260506134604 | 22 | 224 | 16.1 | 29.0 | 0.00 | 0.00 | 0.00 | 47 | 1015.8 |
| 20260506134517 | 22 | 224 | 16.1 | 29.0 | 0.00 | 0.00 | 0.00 | 47 | 1015.8 |
| 20260506134404 | 23 | 222 | 16.1 | 29.0 | 0.00 | 0.00 | 0.00 | 47 | 1015.7 |
| 20260506134316 | 22 | 217 | 16.1 | 29.0 | 0.00 | 0.00 | 0.00 | 48 | 1015.8 |
| 20260506134204 | 22 | 218 | 16.1 | 29.0 | 0.00 | 0.00 | 0.00 | 48 | 1015.7 |
| 20260506134117 | 22 | 219 | 16.1 | 29.0 | 0.00 | 0.00 | 0.00 | 47 | 1015.8 |
| 20260506134004 | 22 | 217 | 16.1 | 29.0 | 0.00 | 0.00 | 0.00 | 47 | 1015.8 |
| 20260506133917 | 22 | 214 | 16.1 | 29.0 | 0.00 | 0.00 | 0.00 | 47 | 1015.8 |
| 20260506133804 | 22 | 210 | 16.1 | 35.4 | 0.00 | 0.00 | 0.00 | 46 | 1015.8 |
| 20260506133717 | 23 | 209 | 16.1 | 35.4 | 0.00 | 0.00 | 0.00 | 45 | 1015.9 |
| 20260506133603 | 23 | 207 | 16.1 | 35.4 | 0.00 | 0.00 | 0.00 | 46 | 1015.8 |
| 20260506133517 | 23 | 207 | 16.1 | 35.4 | 0.00 | 0.00 | 0.00 | 44 | 1015.8 |
| 20260506133404 | 23 | 208 | 16.1 | 35.4 | 0.00 | 0.00 | 0.00 | 45 | 1015.8 |
| 20260506133317 | 23 | 210 | 16.1 | 35.4 | 0.00 | 0.00 | 0.00 | 46 | 1015.9 |
| 20260506133204 | 23 | 210 | 16.1 | 35.4 | 0.00 | 0.00 | 0.00 | 46 | 1015.8 |
| 20260506133117 | 23 | 207 | 16.1 | 35.4 | 0.00 | 0.00 | 0.00 | 47 | 1015.9 |
| 20260506133004 | 23 | 207 | 16.1 | 35.4 | 0.00 | 0.00 | 0.00 | 46 | 1015.9 |
| 20260506132917 | 23 | 208 | 16.1 | 35.4 | 0.00 | 0.00 | 0.00 | 46 | 1015.9 |
| 20260506132805 | 23 | 209 | 16.1 | 38.6 | 0.00 | 0.00 | 0.00 | 46 | 1015.9 |
| 20260506132717 | 23 | 207 | 16.1 | 38.6 | 0.00 | 0.00 | 0.00 | 47 | 1015.9 |
| 20260506132604 | 23 | 206 | 14.5 | 38.6 | 0.00 | 0.00 | 0.00 | 47 | 1015.8 |
| 20260506132517 | 23 | 206 | 14.5 | 38.6 | 0.00 | 0.00 | 0.00 | 47 | 1015.8 |
| 20260506132404 | 23 | 208 | 14.5 | 38.6 | 0.00 | 0.00 | 0.00 | 47 | 1015.9 |
| 20260506132317 | 23 | 209 | 14.5 | 38.6 | 0.00 | 0.00 | 0.00 | 47 | 1015.9 |
| 20260506132205 | 23 | 213 | 14.5 | 38.6 | 0.00 | 0.00 | 0.00 | 47 | 1015.8 |
| 20260506132118 | 23 | 216 | 14.5 | 38.6 | 0.00 | 0.00 | 0.00 | 47 | 1015.9 |
| 20260506132005 | 23 | 217 | 14.5 | 38.6 | 0.00 | 0.00 | 0.00 | 46 | 1015.9 |
| 20260506131917 | 23 | 218 | 14.5 | 38.6 | 0.00 | 0.00 | 0.00 | 46 | 1015.9 |
| 20260506131804 | 23 | 225 | 14.5 | 32.2 | 0.00 | 0.00 | 0.00 | 46 | 1015.9 |
| 20260506131717 | 23 | 230 | 14.5 | 29.0 | 0.00 | 0.00 | 0.00 | 46 | 1015.9 |
| 20260506131604 | 23 | 235 | 14.5 | 27.4 | 0.00 | 0.00 | 0.00 | 47 | 1015.9 |
| 20260506131518 | 23 | 236 | 16.1 | 27.4 | 0.00 | 0.00 | 0.00 | 46 | 1015.9 |
| 20260506131405 | 23 | 235 | 16.1 | 29.0 | 0.00 | 0.00 | 0.00 | 48 | 1015.9 |
| 20260506131317 | 22 | 234 | 16.1 | 29.0 | 0.00 | 0.00 | 0.00 | 47 | 1015.9 |
| 20260506131204 | 22 | 229 | 16.1 | 32.2 | 0.00 | 0.00 | 0.00 | 49 | 1015.9 |
| 20260506131117 | 22 | 229 | 16.1 | 32.2 | 0.00 | 0.00 | 0.00 | 49 | 1015.9 |
| 20260506131004 | 22 | 230 | 16.1 | 32.2 | 0.00 | 0.00 | 0.00 | 48 | 1015.9 |
| 20260506130917 | 22 | 231 | 16.1 | 32.2 | 0.00 | 0.00 | 0.00 | 48 | 1015.9 |
| 20260506130804 | 22 | 230 | 16.1 | 32.2 | 0.00 | 0.00 | 0.00 | 48 | 1015.9 |
| 20260506130718 | 22 | 228 | 16.1 | 32.2 | 0.00 | 0.00 | 0.00 | 48 | 1015.9 |
| 20260506130603 | 22 | 227 | 16.1 | 32.2 | 0.00 | 0.00 | 0.00 | 48 | 1016.0 |
| 20260506130517 | 22 | 226 | 16.1 | 32.2 | 0.00 | 0.00 | 0.00 | 48 | 1015.9 |
| 20260506130403 | 22 | 224 | 16.1 | 32.2 | 0.00 | 0.00 | 0.00 | 49 | 1015.9 |
| 20260506130317 | 22 | 221 | 16.1 | 32.2 | 0.00 | 0.00 | 0.00 | 49 | 1015.9 |
| 20260506130204 | 22 | 222 | 16.1 | 32.2 | 0.00 | 0.00 | 0.00 | 50 | 1015.9 |
| 20260506130116 | 22 | 221 | 16.1 | 32.2 | 0.00 | 0.00 | 0.00 | 50 | 1015.9 |
| 20260506130005 | 22 | 217 | 16.1 | 35.4 | 0.00 | 0.00 | 0.00 | 50 | 1015.9 |
| 20260506125917 | 22 | 217 | 16.1 | 35.4 | 0.00 | 0.00 | 0.00 | 49 | 1015.9 |
| 20260506125804 | 23 | 215 | 16.1 | 35.4 | 0.00 | 0.00 | 0.00 | 49 | 1015.9 |
| 20260506125717 | 23 | 216 | 16.1 | 35.4 | 0.00 | 0.00 | 0.00 | 50 | 1015.9 |
| 20260506125604 | 22 | 215 | 16.1 | 35.4 | 0.00 | 0.00 | 0.00 | 50 | 1015.9 |
| 20260506125517 | 22 | 214 | 16.1 | 35.4 | 0.00 | 0.00 | 0.00 | 50 | 1015.8 |
| 20260506125404 | 22 | 214 | 16.1 | 35.4 | 0.00 | 0.00 | 0.00 | 50 | 1015.9 |
| 20260506125316 | 22 | 216 | 16.1 | 35.4 | 0.00 | 0.00 | 0.00 | 50 | 1015.9 |
| 20260506125204 | 22 | 215 | 16.1 | 35.4 | 0.00 | 0.00 | 0.00 | 52 | 1015.9 |
| 20260506125115 | 22 | 215 | 17.7 | 35.4 | 0.00 | 0.00 | 0.00 | 51 | 1015.9 |
| 20260506125002 | 22 | 217 | 17.7 | 32.2 | 0.00 | 0.00 | 0.00 | 51 | 1015.9 |
| 20260506124915 | 22 | 216 | 17.7 | 32.2 | 0.00 | 0.00 | 0.00 | 52 | 1015.9 |
| 20260506124802 | 22 | 216 | 17.7 | 35.4 | 0.00 | 0.00 | 0.00 | 52 | 1015.9 |
| 20260506124715 | 22 | 213 | 17.7 | 35.4 | 0.00 | 0.00 | 0.00 | 53 | 1015.8 |
| 20260506124602 | 22 | 211 | 19.3 | 35.4 | 0.00 | 0.00 | 0.00 | 52 | 1015.9 |
| 20260506124515 | 22 | 210 | 19.3 | 35.4 | 0.00 | 0.00 | 0.00 | 52 | 1016.0 |
| 20260506124402 | 22 | 212 | 19.3 | 35.4 | 0.00 | 0.00 | 0.00 | 51 | 1015.9 |
| 20260506124315 | 22 | 211 | 17.7 | 41.8 | 0.00 | 0.00 | 0.00 | 51 | 1015.9 |
| 20260506124202 | 22 | 210 | 17.7 | 41.8 | 0.00 | 0.00 | 0.00 | 51 | 1016.0 |
| 20260506124115 | 22 | 208 | 17.7 | 45.1 | 0.00 | 0.00 | 0.00 | 51 | 1016.0 |
| 20260506124002 | 22 | 205 | 17.7 | 49.9 | 0.00 | 0.00 | 0.00 | 50 | 1016.0 |
| 20260506123914 | 22 | 204 | 17.7 | 49.9 | 0.00 | 0.00 | 0.00 | 50 | 1016.0 |
| 20260506123802 | 22 | 205 | 17.7 | 49.9 | 0.00 | 0.00 | 0.00 | 50 | 1016.0 |
| 20260506123715 | 22 | 206 | 16.1 | 49.9 | 0.00 | 0.00 | 0.00 | 50 | 1016.0 |
| 20260506123602 | 22 | 209 | 16.1 | 49.9 | 0.00 | 0.00 | 0.00 | 50 | 1016.0 |
| 20260506123515 | 22 | 209 | 16.1 | 49.9 | 0.00 | 0.00 | 0.00 | 49 | 1016.0 |
| 20260506123402 | 22 | 208 | 16.1 | 49.9 | 0.00 | 0.00 | 0.00 | 50 | 1016.0 |
| 20260506123315 | 22 | 212 | 16.1 | 49.9 | 0.00 | 0.00 | 0.00 | 49 | 1016.0 |
| 20260506123203 | 23 | 214 | 16.1 | 49.9 | 0.00 | 0.00 | 0.00 | 49 | 1016.1 |
| 20260506123115 | 23 | 217 | 16.1 | 49.9 | 0.00 | 0.00 | 0.00 | 50 | 1016.1 |
| 20260506123002 | 23 | 221 | 16.1 | 29.0 | 0.00 | 0.00 | 0.00 | 51 | 1016.1 |
| 20260506122915 | 22 | 220 | 16.1 | 35.4 | 0.00 | 0.00 | 0.00 | 51 | 1016.1 |
| 20260506122802 | 22 | 218 | 16.1 | 35.4 | 0.00 | 0.00 | 0.00 | 52 | 1016.1 |
| 20260506122715 | 22 | 216 | 16.1 | 35.4 | 0.00 | 0.00 | 0.00 | 52 | 1016.1 |
| 20260506122602 | 22 | 216 | 16.1 | 35.4 | 0.00 | 0.00 | 0.00 | 52 | 1016.1 |
| 20260506122515 | 22 | 216 | 16.1 | 35.4 | 0.00 | 0.00 | 0.00 | 53 | 1016.1 |
| 20260506122403 | 22 | 214 | 16.1 | 35.4 | 0.00 | 0.00 | 0.00 | 53 | 1016.1 |
| 20260506122315 | 22 | 213 | 17.7 | 35.4 | 0.00 | 0.00 | 0.00 | 52 | 1016.1 |
| 20260506122202 | 22 | 214 | 17.7 | 35.4 | 0.00 | 0.00 | 0.00 | 52 | 1016.1 |
| 20260506122116 | 22 | 214 | 17.7 | 35.4 | 0.00 | 0.00 | 0.00 | 52 | 1016.2 |
| 20260506122003 | 22 | 214 | 17.7 | 35.4 | 0.00 | 0.00 | 0.00 | 52 | 1016.1 |
| 20260506121915 | 22 | 215 | 17.7 | 35.4 | 0.00 | 0.00 | 0.00 | 53 | 1016.2 |
| 20260506121802 | 22 | 214 | 17.7 | 45.1 | 0.00 | 0.00 | 0.00 | 52 | 1016.1 |
| 20260506121715 | 22 | 217 | 17.7 | 45.1 | 0.00 | 0.00 | 0.00 | 52 | 1016.2 |
| 20260506121602 | 22 | 216 | 17.7 | 45.1 | 0.00 | 0.00 | 0.00 | 53 | 1016.2 |
| 20260506121515 | 22 | 217 | 17.7 | 45.1 | 0.00 | 0.00 | 0.00 | 53 | 1016.2 |
| 20260506121402 | 22 | 219 | 17.7 | 45.1 | 0.00 | 0.00 | 0.00 | 53 | 1016.2 |
| 20260506121315 | 22 | 218 | 17.7 | 45.1 | 0.00 | 0.00 | 0.00 | 53 | 1016.2 |
| 20260506121202 | 22 | 217 | 17.7 | 45.1 | 0.00 | 0.00 | 0.00 | 52 | 1016.3 |
| 20260506121116 | 22 | 215 | 17.7 | 45.1 | 0.00 | 0.00 | 0.00 | 51 | 1016.2 |
| 20260506121002 | 22 | 215 | 16.1 | 45.1 | 0.00 | 0.00 | 0.00 | 51 | 1016.3 |
| 20260506120915 | 22 | 217 | 16.1 | 45.1 | 0.00 | 0.00 | 0.00 | 52 | 1016.3 |
| 20260506120802 | 22 | 221 | 16.1 | 32.2 | 0.00 | 0.00 | 0.00 | 51 | 1016.3 |
| 20260506120716 | 22 | 221 | 14.5 | 32.2 | 0.00 | 0.00 | 0.00 | 49 | 1016.2 |
| 20260506120603 | 22 | 222 | 14.5 | 32.2 | 0.00 | 0.00 | 0.00 | 48 | 1016.2 |
| 20260506120515 | 22 | 224 | 14.5 | 32.2 | 0.00 | 0.00 | 0.00 | 47 | 1016.3 |
| 20260506120402 | 22 | 224 | 14.5 | 32.2 | 0.00 | 0.00 | 0.00 | 48 | 1016.3 |
| 20260506120315 | 22 | 227 | 12.9 | 32.2 | 0.00 | 0.00 | 0.00 | 49 | 1016.3 |
| 20260506120202 | 22 | 228 | 12.9 | 32.2 | 0.00 | 0.00 | 0.00 | 49 | 1016.3 |
| 20260506120115 | 22 | 229 | 12.9 | 32.2 | 0.00 | 0.00 | 0.00 | 48 | 1016.3 |
| 20260506120002 | 22 | 231 | 12.9 | 32.2 | 0.00 | 0.00 | 0.00 | 47 | 1016.2 |
| 20260506115914 | 22 | 229 | 12.9 | 32.2 | 0.00 | 0.00 | 0.00 | 49 | 1016.2 |
| 20260506115802 | 22 | 231 | 12.9 | 29.0 | 0.00 | 0.00 | 0.00 | 49 | 1016.3 |
| 20260506115715 | 22 | 232 | 12.9 | 29.0 | 0.00 | 0.00 | 0.00 | 49 | 1016.3 |
| 20260506115602 | 22 | 235 | 12.9 | 29.0 | 0.00 | 0.00 | 0.00 | 49 | 1016.3 |
| 20260506115514 | 22 | 234 | 12.9 | 29.0 | 0.00 | 0.00 | 0.00 | 49 | 1016.4 |
| 20260506115402 | 22 | 234 | 12.9 | 29.0 | 0.00 | 0.00 | 0.00 | 49 | 1016.4 |
| 20260506115315 | 22 | 234 | 12.9 | 29.0 | 0.00 | 0.00 | 0.00 | 50 | 1016.3 |
| 20260506115203 | 22 | 234 | 12.9 | 27.4 | 0.00 | 0.00 | 0.00 | 51 | 1016.4 |
| 20260506115115 | 22 | 232 | 12.9 | 29.0 | 0.00 | 0.00 | 0.00 | 53 | 1016.4 |
| 20260506115002 | 22 | 232 | 12.9 | 29.0 | 0.00 | 0.00 | 0.00 | 52 | 1016.3 |
| 20260506114916 | 22 | 232 | 12.9 | 29.0 | 0.00 | 0.00 | 0.00 | 51 | 1016.3 |
| 20260506114803 | 22 | 226 | 12.9 | 29.0 | 0.00 | 0.00 | 0.00 | 50 | 1016.4 |
| 20260506114716 | 22 | 223 | 12.9 | 29.0 | 0.00 | 0.00 | 0.00 | 50 | 1016.4 |
| 20260506114603 | 22 | 218 | 12.9 | 29.0 | 0.00 | 0.00 | 0.00 | 50 | 1016.4 |
| 20260506114516 | 22 | 221 | 12.9 | 29.0 | 0.00 | 0.00 | 0.00 | 51 | 1016.4 |
| 20260506114402 | 22 | 222 | 11.3 | 29.0 | 0.00 | 0.00 | 0.00 | 51 | 1016.4 |
| 20260506114315 | 22 | 222 | 11.3 | 29.0 | 0.00 | 0.00 | 0.00 | 50 | 1016.3 |
| 20260506114202 | 22 | 225 | 11.3 | 29.0 | 0.00 | 0.00 | 0.00 | 50 | 1016.4 |
| 20260506114115 | 22 | 229 | 11.3 | 29.0 | 0.00 | 0.00 | 0.00 | 51 | 1016.4 |
| 20260506114002 | 22 | 229 | 11.3 | 29.0 | 0.00 | 0.00 | 0.00 | 50 | 1016.4 |
| 20260506113915 | 22 | 228 | 11.3 | 32.2 | 0.00 | 0.00 | 0.00 | 51 | 1016.4 |
| 20260506113802 | 22 | 232 | 11.3 | 32.2 | 0.00 | 0.00 | 0.00 | 53 | 1016.4 |
| 20260506113715 | 22 | 235 | 11.3 | 32.2 | 0.00 | 0.00 | 0.00 | 53 | 1016.4 |
| 20260506113603 | 22 | 241 | 11.3 | 32.2 | 0.00 | 0.00 | 0.00 | 53 | 1016.4 |
| 20260506113515 | 22 | 240 | 11.3 | 32.2 | 0.00 | 0.00 | 0.00 | 52 | 1016.4 |
| 20260506113402 | 22 | 238 | 11.3 | 32.2 | 0.00 | 0.00 | 0.00 | 52 | 1016.4 |
| 20260506113315 | 22 | 241 | 12.9 | 32.2 | 0.00 | 0.00 | 0.00 | 53 | 1016.4 |
| 20260506113203 | 22 | 240 | 12.9 | 32.2 | 0.00 | 0.00 | 0.00 | 53 | 1016.4 |
| 20260506113116 | 22 | 236 | 12.9 | 32.2 | 0.00 | 0.00 | 0.00 | 53 | 1016.5 |
| 20260506113003 | 22 | 239 | 12.9 | 32.2 | 0.00 | 0.00 | 0.00 | 54 | 1016.5 |
| 20260506112916 | 22 | 248 | 12.9 | 32.2 | 0.00 | 0.00 | 0.00 | 55 | 1016.5 |
| 20260506112803 | 22 | 248 | 12.9 | 32.2 | 0.00 | 0.00 | 0.00 | 55 | 1016.5 |
| 20260506112716 | 21 | 248 | 11.3 | 32.2 | 0.00 | 0.00 | 0.00 | 54 | 1016.5 |
| 20260506112602 | 21 | 246 | 11.3 | 32.2 | 0.00 | 0.00 | 0.00 | 55 | 1016.5 |
| 20260506112515 | 21 | 243 | 11.3 | 32.2 | 0.00 | 0.00 | 0.00 | 55 | 1016.5 |
| 20260506112403 | 21 | 244 | 11.3 | 32.2 | 0.00 | 0.00 | 0.00 | 55 | 1016.6 |
| 20260506112315 | 21 | 244 | 11.3 | 32.2 | 0.00 | 0.00 | 0.00 | 55 | 1016.5 |
| 20260506112202 | 21 | 247 | 11.3 | 32.2 | 0.00 | 0.00 | 0.00 | 55 | 1016.5 |
| 20260506112116 | 21 | 248 | 9.7 | 32.2 | 0.00 | 0.00 | 0.00 | 55 | 1016.5 |
| 20260506112002 | 21 | 245 | 9.7 | 29.0 | 0.00 | 0.00 | 0.00 | 55 | 1016.5 |
| 20260506111915 | 21 | 243 | 9.7 | 29.0 | 0.00 | 0.00 | 0.00 | 55 | 1016.5 |
| 20260506111802 | 21 | 247 | 9.7 | 29.0 | 0.00 | 0.00 | 0.00 | 54 | 1016.5 |
| 20260506111715 | 22 | 247 | 9.7 | 29.0 | 0.00 | 0.00 | 0.00 | 54 | 1016.5 |
| 20260506111602 | 22 | 246 | 9.7 | 29.0 | 0.00 | 0.00 | 0.00 | 55 | 1016.5 |
| 20260506111515 | 22 | 246 | 9.7 | 29.0 | 0.00 | 0.00 | 0.00 | 56 | 1016.5 |
| 20260506111402 | 22 | 244 | 9.7 | 29.0 | 0.00 | 0.00 | 0.00 | 56 | 1016.5 |
| 20260506111314 | 22 | 237 | 9.7 | 35.4 | 0.00 | 0.00 | 0.00 | 56 | 1016.4 |
| 20260506111202 | 22 | 230 | 9.7 | 35.4 | 0.00 | 0.00 | 0.00 | 56 | 1016.4 |
| 20260506111115 | 22 | 229 | 11.3 | 35.4 | 0.00 | 0.00 | 0.00 | 56 | 1016.4 |
| 20260506111002 | 22 | 228 | 11.3 | 35.4 | 0.00 | 0.00 | 0.00 | 56 | 1016.4 |
| 20260506110915 | 22 | 227 | 11.3 | 35.4 | 0.00 | 0.00 | 0.00 | 55 | 1016.4 |
| 20260506110802 | 22 | 224 | 11.3 | 35.4 | 0.00 | 0.00 | 0.00 | 54 | 1016.4 |
| 20260506110715 | 22 | 223 | 12.9 | 35.4 | 0.00 | 0.00 | 0.00 | 55 | 1016.4 |
| 20260506110602 | 22 | 224 | 12.9 | 35.4 | 0.00 | 0.00 | 0.00 | 54 | 1016.5 |
| 20260506110515 | 22 | 226 | 12.9 | 35.4 | 0.00 | 0.00 | 0.00 | 55 | 1016.5 |
| 20260506110402 | 22 | 227 | 12.9 | 35.4 | 0.00 | 0.00 | 0.00 | 56 | 1016.4 |
| 20260506110314 | 22 | 228 | 14.5 | 35.4 | 0.00 | 0.00 | 0.00 | 58 | 1016.4 |
| 20260506110202 | 22 | 228 | 14.5 | 35.4 | 0.00 | 0.00 | 0.00 | 58 | 1016.4 |
| 20260506110114 | 22 | 226 | 14.5 | 35.4 | 0.00 | 0.00 | 0.00 | 57 | 1016.4 |
| 20260506110002 | 22 | 225 | 14.5 | 35.4 | 0.00 | 0.00 | 0.00 | 57 | 1016.4 |
| 20260506105914 | 22 | 227 | 14.5 | 35.4 | 0.00 | 0.00 | 0.00 | 58 | 1016.4 |
| 20260506105802 | 22 | 225 | 16.1 | 35.4 | 0.00 | 0.00 | 0.00 | 58 | 1016.5 |
| 20260506105715 | 22 | 225 | 16.1 | 35.4 | 0.00 | 0.00 | 0.00 | 57 | 1016.4 |
| 20260506105603 | 22 | 227 | 16.1 | 35.4 | 0.00 | 0.00 | 0.00 | 55 | 1016.4 |
| 20260506105515 | 22 | 230 | 16.1 | 35.4 | 0.00 | 0.00 | 0.00 | 56 | 1016.5 |
| 20260506105402 | 22 | 233 | 16.1 | 32.2 | 0.00 | 0.00 | 0.00 | 56 | 1016.4 |
| 20260506105315 | 22 | 234 | 17.7 | 32.2 | 0.00 | 0.00 | 0.00 | 58 | 1016.4 |
| 20260506105203 | 22 | 238 | 17.7 | 32.2 | 0.00 | 0.00 | 0.00 | 56 | 1016.3 |
| 20260506105115 | 22 | 236 | 17.7 | 41.8 | 0.00 | 0.00 | 0.00 | 57 | 1016.4 |
| 20260506105002 | 22 | 236 | 17.7 | 41.8 | 0.00 | 0.00 | 0.00 | 58 | 1016.4 |
| 20260506104915 | 22 | 230 | 17.7 | 49.9 | 0.00 | 0.00 | 0.00 | 59 | 1016.4 |
| 20260506104802 | 22 | 227 | 17.7 | 49.9 | 0.00 | 0.00 | 0.00 | 59 | 1016.4 |
| 20260506104715 | 22 | 225 | 17.7 | 49.9 | 0.00 | 0.00 | 0.00 | 58 | 1016.4 |
| 20260506104603 | 22 | 220 | 16.1 | 49.9 | 0.00 | 0.00 | 0.00 | 57 | 1016.3 |
| 20260506104515 | 22 | 216 | 16.1 | 49.9 | 0.00 | 0.00 | 0.00 | 57 | 1016.4 |
| 20260506104403 | 22 | 215 | 16.1 | 49.9 | 0.00 | 0.00 | 0.00 | 57 | 1016.4 |
| 20260506104315 | 22 | 215 | 16.1 | 49.9 | 0.00 | 0.00 | 0.00 | 56 | 1016.4 |
| 20260506104203 | 22 | 212 | 16.1 | 49.9 | 0.00 | 0.00 | 0.00 | 52 | 1016.3 |
| 20260506104115 | 22 | 214 | 14.5 | 49.9 | 0.00 | 0.00 | 0.00 | 53 | 1016.4 |
| 20260506104002 | 22 | 216 | 14.5 | 49.9 | 0.00 | 0.00 | 0.00 | 52 | 1016.4 |
| 20260506103915 | 22 | 217 | 14.5 | 46.7 | 0.00 | 0.00 | 0.00 | 50 | 1016.4 |
| 20260506103802 | 22 | 222 | 14.5 | 32.2 | 0.00 | 0.00 | 0.00 | 55 | 1016.3 |
| 20260506103715 | 22 | 228 | 14.5 | 35.4 | 0.00 | 0.00 | 0.00 | 54 | 1016.3 |
| 20260506103602 | 22 | 234 | 14.5 | 35.4 | 0.00 | 0.00 | 0.00 | 55 | 1016.4 |
| 20260506103514 | 22 | 237 | 14.5 | 35.4 | 0.00 | 0.00 | 0.00 | 57 | 1016.3 |
| 20260506103402 | 22 | 240 | 14.5 | 35.4 | 0.00 | 0.00 | 0.00 | 55 | 1016.3 |
| 20260506103314 | 22 | 243 | 14.5 | 35.4 | 0.00 | 0.00 | 0.00 | 53 | 1016.3 |
| 20260506103202 | 22 | 249 | 14.5 | 35.4 | 0.00 | 0.00 | 0.00 | 55 | 1016.3 |
| 20260506103114 | 22 | 249 | 14.5 | 35.4 | 0.00 | 0.00 | 0.00 | 54 | 1016.4 |
| 20260506103002 | 22 | 247 | 14.5 | 35.4 | 0.00 | 0.00 | 0.00 | 53 | 1016.3 |
| 20260506102914 | 22 | 244 | 14.5 | 35.4 | 0.00 | 0.00 | 0.00 | 53 | 1016.4 |
| 20260506102802 | 22 | 242 | 14.5 | 35.4 | 0.00 | 0.00 | 0.00 | 54 | 1016.3 |
| 20260506102715 | 22 | 232 | 14.5 | 38.6 | 0.00 | 0.00 | 0.00 | 57 | 1016.3 |
| 20260506102602 | 22 | 228 | 14.5 | 38.6 | 0.00 | 0.00 | 0.00 | 56 | 1016.3 |
| 20260506102515 | 22 | 226 | 14.5 | 38.6 | 0.00 | 0.00 | 0.00 | 54 | 1016.4 |
| 20260506102403 | 23 | 225 | 14.5 | 38.6 | 0.00 | 0.00 | 0.00 | 53 | 1016.4 |
| 20260506102315 | 23 | 222 | 14.5 | 38.6 | 0.00 | 0.00 | 0.00 | 52 | 1016.3 |
| 20260506102202 | 23 | 219 | 14.5 | 38.6 | 0.00 | 0.00 | 0.00 | 51 | 1016.3 |
| 20260506102114 | 23 | 218 | 14.5 | 38.6 | 0.00 | 0.00 | 0.00 | 50 | 1016.4 |
| 20260506102002 | 23 | 218 | 14.5 | 38.6 | 0.00 | 0.00 | 0.00 | 51 | 1016.3 |
| 20260506101914 | 22 | 223 | 14.5 | 38.6 | 0.00 | 0.00 | 0.00 | 51 | 1016.4 |
| 20260506101802 | 22 | 225 | 16.1 | 38.6 | 0.00 | 0.00 | 0.00 | 50 | 1016.3 |
| 20260506101715 | 22 | 230 | 16.1 | 38.6 | 0.00 | 0.00 | 0.00 | 53 | 1016.4 |
| 20260506101603 | 22 | 229 | 16.1 | 38.6 | 0.00 | 0.00 | 0.00 | 51 | 1016.3 |
| 20260506101515 | 22 | 231 | 16.1 | 38.6 | 0.00 | 0.00 | 0.00 | 51 | 1016.3 |
| 20260506101402 | 22 | 228 | 16.1 | 38.6 | 0.00 | 0.00 | 0.00 | 50 | 1016.3 |
| 20260506101315 | 22 | 228 | 16.1 | 38.6 | 0.00 | 0.00 | 0.00 | 49 | 1016.3 |
| 20260506101203 | 22 | 227 | 17.7 | 38.6 | 0.00 | 0.00 | 0.00 | 47 | 1016.3 |
| 20260506101115 | 22 | 228 | 17.7 | 38.6 | 0.00 | 0.00 | 0.00 | 46 | 1016.4 |
| 20260506101002 | 22 | 228 | 17.7 | 38.6 | 0.00 | 0.00 | 0.00 | 45 | 1016.4 |
| 20260506100915 | 22 | 228 | 17.7 | 38.6 | 0.00 | 0.00 | 0.00 | 45 | 1016.3 |
| 20260506100802 | 22 | 224 | 17.7 | 38.6 | 0.00 | 0.00 | 0.00 | 45 | 1016.3 |
| 20260506100715 | 22 | 226 | 19.3 | 38.6 | 0.00 | 0.00 | 0.00 | 47 | 1016.4 |
| 20260506100603 | 22 | 228 | 19.3 | 38.6 | 0.00 | 0.00 | 0.00 | 45 | 1016.4 |
| 20260506100515 | 22 | 225 | 19.3 | 38.6 | 0.00 | 0.00 | 0.00 | 45 | 1016.4 |
| 20260506100403 | 22 | 222 | 19.3 | 41.8 | 0.00 | 0.00 | 0.00 | 46 | 1016.4 |
| 20260506100316 | 22 | 223 | 19.3 | 41.8 | 0.00 | 0.00 | 0.00 | 45 | 1016.5 |
| 20260506100202 | 22 | 222 | 17.7 | 41.8 | 0.00 | 0.00 | 0.00 | 45 | 1016.5 |
| 20260506100115 | 22 | 222 | 17.7 | 41.8 | 0.00 | 0.00 | 0.00 | 45 | 1016.5 |
| 20260506100003 | 22 | 221 | 17.7 | 41.8 | 0.00 | 0.00 | 0.00 | 44 | 1016.5 |
| 20260506095915 | 22 | 220 | 17.7 | 41.8 | 0.00 | 0.00 | 0.00 | 45 | 1016.4 |
| 20260506095802 | 22 | 221 | 17.7 | 41.8 | 0.00 | 0.00 | 0.00 | 46 | 1016.5 |
| 20260506095714 | 22 | 220 | 17.7 | 41.8 | 0.00 | 0.00 | 0.00 | 48 | 1016.4 |
| 20260506095602 | 22 | 220 | 17.7 | 41.8 | 0.00 | 0.00 | 0.00 | 48 | 1016.4 |
| 20260506095516 | 22 | 223 | 16.1 | 41.8 | 0.00 | 0.00 | 0.00 | 48 | 1016.5 |
| 20260506095403 | 22 | 228 | 16.1 | 35.4 | 0.00 | 0.00 | 0.00 | 49 | 1016.4 |
| 20260506095315 | 22 | 229 | 16.1 | 29.0 | 0.00 | 0.00 | 0.00 | 49 | 1016.4 |
| 20260506095203 | 22 | 231 | 16.1 | 29.0 | 0.00 | 0.00 | 0.00 | 50 | 1016.3 |
| 20260506095115 | 22 | 232 | 16.1 | 32.2 | 0.00 | 0.00 | 0.00 | 51 | 1016.4 |
| 20260506095003 | 22 | 232 | 16.1 | 32.2 | 0.00 | 0.00 | 0.00 | 50 | 1016.3 |
| 20260506094915 | 22 | 234 | 16.1 | 32.2 | 0.00 | 0.00 | 0.00 | 49 | 1016.4 |
| 20260506094803 | 22 | 232 | 16.1 | 32.2 | 0.00 | 0.00 | 0.00 | 48 | 1016.3 |
| 20260506094715 | 22 | 234 | 17.7 | 32.2 | 0.00 | 0.00 | 0.00 | 48 | 1016.3 |
| 20260506094602 | 22 | 235 | 17.7 | 32.2 | 0.00 | 0.00 | 0.00 | 45 | 1016.3 |
| 20260506094515 | 22 | 234 | 17.7 | 32.2 | 0.00 | 0.00 | 0.00 | 44 | 1016.3 |
| 20260506094402 | 23 | 232 | 17.7 | 32.2 | 0.00 | 0.00 | 0.00 | 44 | 1016.4 |
| 20260506094315 | 23 | 229 | 17.7 | 32.2 | 0.00 | 0.00 | 0.00 | 45 | 1016.3 |
| 20260506094203 | 23 | 226 | 17.7 | 32.2 | 0.00 | 0.00 | 0.00 | 45 | 1016.3 |
| 20260506094115 | 23 | 229 | 19.3 | 29.0 | 0.00 | 0.00 | 0.00 | 44 | 1016.2 |
| 20260506094003 | 23 | 229 | 19.3 | 35.4 | 0.00 | 0.00 | 0.00 | 45 | 1016.3 |
| 20260506093915 | 22 | 229 | 19.3 | 35.4 | 0.00 | 0.00 | 0.00 | 45 | 1016.3 |
| 20260506093803 | 22 | 226 | 19.3 | 38.6 | 0.00 | 0.00 | 0.00 | 44 | 1016.3 |
| 20260506093715 | 22 | 226 | 17.7 | 38.6 | 0.00 | 0.00 | 0.00 | 43 | 1016.3 |
| 20260506093603 | 22 | 226 | 17.7 | 38.6 | 0.00 | 0.00 | 0.00 | 44 | 1016.3 |
| 20260506093515 | 22 | 227 | 17.7 | 38.6 | 0.00 | 0.00 | 0.00 | 44 | 1016.3 |
| 20260506093403 | 22 | 229 | 17.7 | 38.6 | 0.00 | 0.00 | 0.00 | 43 | 1016.4 |
| 20260506093315 | 22 | 229 | 17.7 | 38.6 | 0.00 | 0.00 | 0.00 | 43 | 1016.3 |
| 20260506093202 | 22 | 229 | 17.7 | 38.6 | 0.00 | 0.00 | 0.00 | 42 | 1016.3 |
| 20260506093115 | 22 | 228 | 17.7 | 38.6 | 0.00 | 0.00 | 0.00 | 42 | 1016.3 |
| 20260506093003 | 22 | 229 | 17.7 | 38.6 | 0.00 | 0.00 | 0.00 | 42 | 1016.3 |
| 20260506092915 | 22 | 231 | 17.7 | 38.6 | 0.00 | 0.00 | 0.00 | 43 | 1016.3 |
| 20260506092803 | 22 | 238 | 17.7 | 35.4 | 0.00 | 0.00 | 0.00 | 43 | 1016.3 |
| 20260506092715 | 22 | 239 | 17.7 | 35.4 | 0.00 | 0.00 | 0.00 | 43 | 1016.3 |
| 20260506092602 | 23 | 235 | 17.7 | 32.2 | 0.00 | 0.00 | 0.00 | 44 | 1016.3 |
| 20260506092516 | 23 | 231 | 17.7 | 32.2 | 0.00 | 0.00 | 0.00 | 44 | 1016.4 |
| 20260506092403 | 23 | 228 | 17.7 | 29.0 | 0.00 | 0.00 | 0.00 | 44 | 1016.3 |
| 20260506092315 | 23 | 226 | 17.7 | 29.0 | 0.00 | 0.00 | 0.00 | 44 | 1016.3 |
| 20260506092203 | 23 | 229 | 19.3 | 29.0 | 0.00 | 0.00 | 0.00 | 45 | 1016.3 |
| 20260506092115 | 22 | 227 | 19.3 | 32.2 | 0.00 | 0.00 | 0.00 | 44 | 1016.2 |
| 20260506092002 | 23 | 224 | 17.7 | 32.2 | 0.00 | 0.00 | 0.00 | 44 | 1016.2 |
| 20260506091915 | 23 | 221 | 17.7 | 32.2 | 0.00 | 0.00 | 0.00 | 43 | 1016.2 |
| 20260506091803 | 23 | 218 | 17.7 | 32.2 | 0.00 | 0.00 | 0.00 | 42 | 1016.3 |
| 20260506091715 | 23 | 215 | 17.7 | 32.2 | 0.00 | 0.00 | 0.00 | 40 | 1016.3 |
| 20260506091602 | 23 | 215 | 17.7 | 32.2 | 0.00 | 0.00 | 0.00 | 41 | 1016.2 |
| 20260506091514 | 23 | 215 | 16.1 | 32.2 | 0.00 | 0.00 | 0.00 | 40 | 1016.3 |
| 20260506091402 | 23 | 214 | 16.1 | 32.2 | 0.00 | 0.00 | 0.00 | 40 | 1016.2 |
| 20260506091314 | 23 | 215 | 14.5 | 32.2 | 0.00 | 0.00 | 0.00 | 40 | 1016.2 |
| 20260506091202 | 23 | 215 | 14.5 | 32.2 | 0.00 | 0.00 | 0.00 | 39 | 1016.2 |
| 20260506091115 | 23 | 216 | 14.5 | 32.2 | 0.00 | 0.00 | 0.00 | 40 | 1016.2 |
| 20260506091003 | 23 | 217 | 12.9 | 29.0 | 0.00 | 0.00 | 0.00 | 39 | 1016.2 |
| 20260506090915 | 23 | 219 | 12.9 | 29.0 | 0.00 | 0.00 | 0.00 | 39 | 1016.3 |
| 20260506090803 | 23 | 222 | 12.9 | 29.0 | 0.00 | 0.00 | 0.00 | 39 | 1016.3 |
| 20260506090715 | 23 | 225 | 12.9 | 29.0 | 0.00 | 0.00 | 0.00 | 39 | 1016.3 |
| 20260506090603 | 23 | 227 | 12.9 | 29.0 | 0.00 | 0.00 | 0.00 | 39 | 1016.3 |
| 20260506090515 | 23 | 229 | 11.3 | 32.2 | 0.00 | 0.00 | 0.00 | 39 | 1016.3 |
| 20260506090402 | 23 | 235 | 11.3 | 32.2 | 0.00 | 0.00 | 0.00 | 40 | 1016.3 |
| 20260506090315 | 23 | 237 | 11.3 | 32.2 | 0.00 | 0.00 | 0.00 | 41 | 1016.3 |
| 20260506090202 | 23 | 237 | 11.3 | 32.2 | 0.00 | 0.00 | 0.00 | 41 | 1016.3 |
| 20260506090115 | 23 | 235 | 11.3 | 32.2 | 0.00 | 0.00 | 0.00 | 40 | 1016.3 |
| 20260506090003 | 23 | 235 | 11.3 | 32.2 | 0.00 | 0.00 | 0.00 | 40 | 1016.3 |
| 20260506085915 | 23 | 234 | 11.3 | 32.2 | 0.00 | 0.00 | 0.00 | 40 | 1016.2 |
| 20260506085803 | 23 | 229 | 11.3 | 32.2 | 0.00 | 0.00 | 0.00 | 42 | 1016.2 |
| 20260506085715 | 23 | 226 | 11.3 | 32.2 | 0.00 | 0.00 | 0.00 | 41 | 1016.2 |
| 20260506085602 | 23 | 228 | 11.3 | 32.2 | 0.00 | 0.00 | 0.00 | 41 | 1016.3 |
| 20260506085514 | 23 | 228 | 11.3 | 29.0 | 0.00 | 0.00 | 0.00 | 40 | 1016.2 |
| 20260506085403 | 23 | 229 | 11.3 | 29.0 | 0.00 | 0.00 | 0.00 | 40 | 1016.2 |
| 20260506085315 | 23 | 231 | 11.3 | 29.0 | 0.00 | 0.00 | 0.00 | 40 | 1016.2 |
| 20260506085203 | 23 | 233 | 11.3 | 29.0 | 0.00 | 0.00 | 0.00 | 42 | 1016.2 |
| 20260506085115 | 23 | 235 | 11.3 | 29.0 | 0.00 | 0.00 | 0.00 | 41 | 1016.2 |
| 20260506085003 | 23 | 235 | 11.3 | 29.0 | 0.00 | 0.00 | 0.00 | 41 | 1016.2 |
| 20260506084914 | 23 | 235 | 11.3 | 29.0 | 0.00 | 0.00 | 0.00 | 40 | 1016.2 |
| 20260506084802 | 23 | 240 | 11.3 | 29.0 | 0.00 | 0.00 | 0.00 | 41 | 1016.2 |
| 20260506084715 | 23 | 247 | 11.3 | 29.0 | 0.00 | 0.00 | 0.00 | 41 | 1016.2 |
| 20260506084603 | 23 | 248 | 11.3 | 29.0 | 0.00 | 0.00 | 0.00 | 41 | 1016.2 |
| 20260506084515 | 23 | 245 | 11.3 | 29.0 | 0.00 | 0.00 | 0.00 | 41 | 1016.1 |
| 20260506084403 | 23 | 244 | 11.3 | 27.4 | 0.00 | 0.00 | 0.00 | 41 | 1016.2 |
| 20260506084314 | 23 | 239 | 11.3 | 27.4 | 0.00 | 0.00 | 0.00 | 42 | 1016.1 |
| 20260506084202 | 23 | 240 | 11.3 | 27.4 | 0.00 | 0.00 | 0.00 | 42 | 1016.2 |
| 20260506084114 | 23 | 242 | 11.3 | 27.4 | 0.00 | 0.00 | 0.00 | 41 | 1016.2 |
| 20260506084002 | 23 | 242 | 11.3 | 27.4 | 0.00 | 0.00 | 0.00 | 41 | 1016.2 |
| 20260506083914 | 23 | 239 | 11.3 | 27.4 | 0.00 | 0.00 | 0.00 | 41 | 1016.2 |
| 20260506083802 | 23 | 233 | 11.3 | 27.4 | 0.00 | 0.00 | 0.00 | 41 | 1016.2 |
| 20260506083715 | 23 | 228 | 11.3 | 27.4 | 0.00 | 0.00 | 0.00 | 40 | 1016.1 |
| 20260506083603 | 23 | 227 | 11.3 | 27.4 | 0.00 | 0.00 | 0.00 | 41 | 1016.1 |
| 20260506083514 | 23 | 231 | 11.3 | 27.4 | 0.00 | 0.00 | 0.00 | 41 | 1016.1 |
| 20260506083402 | 23 | 232 | 11.3 | 29.0 | 0.00 | 0.00 | 0.00 | 40 | 1016.1 |
| 20260506083314 | 23 | 235 | 11.3 | 29.0 | 0.00 | 0.00 | 0.00 | 41 | 1016.1 |
| 20260506083202 | 23 | 235 | 11.3 | 29.0 | 0.00 | 0.00 | 0.00 | 41 | 1016.1 |
| 20260506083115 | 23 | 237 | 11.3 | 29.0 | 0.00 | 0.00 | 0.00 | 41 | 1016.1 |
| 20260506083003 | 23 | 237 | 11.3 | 29.0 | 0.00 | 0.00 | 0.00 | 41 | 1016.1 |
| 20260506082915 | 23 | 238 | 11.3 | 29.0 | 0.00 | 0.00 | 0.00 | 41 | 1016.1 |
| 20260506082803 | 23 | 241 | 11.3 | 29.0 | 0.00 | 0.00 | 0.00 | 42 | 1016.0 |
| 20260506082715 | 23 | 241 | 11.3 | 29.0 | 0.00 | 0.00 | 0.00 | 41 | 1016.1 |
| 20260506082603 | 23 | 239 | 11.3 | 29.0 | 0.00 | 0.00 | 0.00 | 41 | 1016.1 |
| 20260506082515 | 23 | 235 | 11.3 | 29.0 | 0.00 | 0.00 | 0.00 | 41 | 1016.1 |
| 20260506082403 | 23 | 230 | 9.7 | 24.1 | 0.00 | 0.00 | 0.00 | 40 | 1016.1 |
| 20260506082315 | 23 | 226 | 9.7 | 27.4 | 0.00 | 0.00 | 0.00 | 41 | 1016.1 |
| 20260506082202 | 23 | 223 | 9.7 | 27.4 | 0.00 | 0.00 | 0.00 | 40 | 1016.1 |
| 20260506082115 | 23 | 224 | 8.0 | 27.4 | 0.00 | 0.00 | 0.00 | 40 | 1016.1 |
| 20260506082002 | 23 | 227 | 8.0 | 27.4 | 0.00 | 0.00 | 0.00 | 40 | 1016.1 |
| 20260506081915 | 23 | 229 | 8.0 | 27.4 | 0.00 | 0.00 | 0.00 | 40 | 1016.1 |
| 20260506081803 | 23 | 231 | 8.0 | 27.4 | 0.00 | 0.00 | 0.00 | 39 | 1016.1 |
| 20260506081714 | 23 | 231 | 8.0 | 27.4 | 0.00 | 0.00 | 0.00 | 40 | 1016.1 |
| 20260506081602 | 23 | 232 | 8.0 | 27.4 | 0.00 | 0.00 | 0.00 | 40 | 1016.1 |
| 20260506081515 | 23 | 236 | 8.0 | 27.4 | 0.00 | 0.00 | 0.00 | 41 | 1016.1 |
| 20260506081403 | 23 | 238 | 8.0 | 27.4 | 0.00 | 0.00 | 0.00 | 41 | 1016.1 |
| 20260506081315 | 23 | 238 | 8.0 | 24.1 | 0.00 | 0.00 | 0.00 | 41 | 1016.1 |
| 20260506081203 | 23 | 241 | 8.0 | 24.1 | 0.00 | 0.00 | 0.00 | 42 | 1016.1 |
| 20260506081115 | 23 | 242 | 8.0 | 20.9 | 0.00 | 0.00 | 0.00 | 42 | 1016.1 |
| 20260506081002 | 23 | 239 | 8.0 | 20.9 | 0.00 | 0.00 | 0.00 | 42 | 1016.0 |
| 20260506080915 | 23 | 240 | 8.0 | 20.9 | 0.00 | 0.00 | 0.00 | 43 | 1016.0 |
| 20260506080803 | 23 | 239 | 8.0 | 20.9 | 0.00 | 0.00 | 0.00 | 44 | 1016.0 |
| 20260506080714 | 23 | 241 | 8.0 | 20.9 | 0.00 | 0.00 | 0.00 | 43 | 1016.0 |
| 20260506080603 | 23 | 240 | 8.0 | 20.9 | 0.00 | 0.00 | 0.00 | 42 | 1016.0 |
| 20260506080515 | 23 | 235 | 8.0 | 27.4 | 0.00 | 0.00 | 0.00 | 42 | 1016.1 |
| 20260506080403 | 23 | 236 | 8.0 | 27.4 | 0.00 | 0.00 | 0.00 | 43 | 1016.0 |
| 20260506080315 | 23 | 239 | 8.0 | 27.4 | 0.00 | 0.00 | 0.00 | 43 | 1016.0 |
| 20260506080203 | 23 | 238 | 8.0 | 27.4 | 0.00 | 0.00 | 0.00 | 42 | 1016.0 |
| 20260506080115 | 23 | 234 | 8.0 | 27.4 | 0.00 | 0.00 | 0.00 | 41 | 1016.0 |
| 20260506073514 | 23 | 232 | 6.4 | 17.7 | 0.00 | 0.00 | 0.00 | 42 | 1015.8 |
| 20260506073403 | 23 | 230 | 6.4 | 17.7 | 0.00 | 0.00 | 0.00 | 42 | 1015.8 |
| 20260506073314 | 23 | 227 | 4.8 | 17.7 | 0.00 | 0.00 | 0.00 | 41 | 1015.9 |
| 20260506073202 | 22 | 227 | 4.8 | 17.7 | 0.00 | 0.00 | 0.00 | 43 | 1015.8 |
| 20260506073115 | 23 | 230 | 4.8 | 17.7 | 0.00 | 0.00 | 0.00 | 43 | 1015.8 |
| 20260506073003 | 23 | 226 | 4.8 | 17.7 | 0.00 | 0.00 | 0.00 | 45 | 1015.8 |
| 20260506072914 | 23 | 219 | 4.8 | 14.5 | 0.00 | 0.00 | 0.00 | 45 | 1015.8 |
| 20260506072803 | 23 | 219 | 4.8 | 14.5 | 0.00 | 0.00 | 0.00 | 45 | 1015.8 |
| 20260506072715 | 22 | 218 | 4.8 | 14.5 | 0.00 | 0.00 | 0.00 | 45 | 1015.8 |
| 20260506072603 | 22 | 217 | 6.4 | 14.5 | 0.00 | 0.00 | 0.00 | 45 | 1015.8 |
| 20260506072515 | 22 | 217 | 6.4 | 14.5 | 0.00 | 0.00 | 0.00 | 45 | 1015.8 |
| 20260506072403 | 22 | 218 | 4.8 | 14.5 | 0.00 | 0.00 | 0.00 | 46 | 1015.8 |
| 20260506072314 | 22 | 220 | 4.8 | 14.5 | 0.00 | 0.00 | 0.00 | 46 | 1015.7 |
| 20260506072202 | 22 | 221 | 4.8 | 14.5 | 0.00 | 0.00 | 0.00 | 46 | 1015.7 |
| 20260506072115 | 22 | 223 | 6.4 | 14.5 | 0.00 | 0.00 | 0.00 | 47 | 1015.7 |
| 20260506072003 | 22 | 228 | 6.4 | 14.5 | 0.00 | 0.00 | 0.00 | 47 | 1015.7 |
| 20260506071915 | 22 | 231 | 6.4 | 11.3 | 0.00 | 0.00 | 0.00 | 47 | 1015.7 |
| 20260506071803 | 22 | 235 | 6.4 | 11.3 | 0.00 | 0.00 | 0.00 | 46 | 1015.7 |
| 20260506071714 | 22 | 238 | 6.4 | 11.3 | 0.00 | 0.00 | 0.00 | 47 | 1015.7 |
| 20260506071603 | 22 | 243 | 6.4 | 11.3 | 0.00 | 0.00 | 0.00 | 47 | 1015.6 |
| 20260506071515 | 22 | 247 | 6.4 | 11.3 | 0.00 | 0.00 | 0.00 | 48 | 1015.7 |
| 20260506071403 | 21 | 251 | 6.4 | 14.5 | 0.00 | 0.00 | 0.00 | 50 | 1015.6 |
| 20260506071315 | 21 | 254 | 6.4 | 14.5 | 0.00 | 0.00 | 0.00 | 49 | 1015.6 |
| 20260506071203 | 21 | 253 | 6.4 | 14.5 | 0.00 | 0.00 | 0.00 | 48 | 1015.6 |
| 20260506071115 | 21 | 252 | 6.4 | 14.5 | 0.00 | 0.00 | 0.00 | 48 | 1015.6 |
| 20260506071003 | 21 | 247 | 6.4 | 14.5 | 0.00 | 0.00 | 0.00 | 49 | 1015.6 |
| 20260506070914 | 21 | 243 | 6.4 | 14.5 | 0.00 | 0.00 | 0.00 | 51 | 1015.7 |
| 20260506070803 | 21 | 242 | 6.4 | 14.5 | 0.00 | 0.00 | 0.00 | 51 | 1015.6 |
| 20260506070715 | 21 | 244 | 6.4 | 14.5 | 0.00 | 0.00 | 0.00 | 52 | 1015.6 |
| 20260506070602 | 21 | 241 | 6.4 | 14.5 | 0.00 | 0.00 | 0.00 | 51 | 1015.7 |
| 20260506070515 | 22 | 236 | 6.4 | 14.5 | 0.00 | 0.00 | 0.00 | 52 | 1015.7 |
| 20260506070403 | 22 | 233 | 6.4 | 14.5 | 0.00 | 0.00 | 0.00 | 51 | 1015.7 |
| 20260506070314 | 22 | 228 | 6.4 | 14.5 | 0.00 | 0.00 | 0.00 | 50 | 1015.7 |
| 20260506070203 | 22 | 225 | 6.4 | 14.5 | 0.00 | 0.00 | 0.00 | 50 | 1015.6 |
| 20260506070115 | 22 | 225 | 6.4 | 14.5 | 0.00 | 0.00 | 0.00 | 49 | 1015.7 |
| 20260506062515 | 22 | 190 | 0.0 | 9.7 | 0.00 | 0.00 | 0.00 | 39 | 1015.6 |
| 20260506062402 | 22 | 184 | 0.0 | 9.7 | 0.00 | 0.00 | 0.00 | 38 | 1015.6 |
| 20260506062314 | 22 | 170 | 0.0 | 9.7 | 0.00 | 0.00 | 0.00 | 37 | 1015.6 |
| 20260506062203 | 22 | 0 | 0.0 | 9.7 | 0.00 | 0.00 | 0.00 | 37 | 1015.7 |
| 20260506062115 | 22 | 0 | 0.0 | 9.7 | 0.00 | 0.00 | 0.00 | 37 | 1015.6 |
| 20260506062002 | 22 | 0 | 0.0 | 6.4 | 0.00 | 0.00 | 0.00 | 37 | 1015.6 |
| 20260506061914 | 22 | 0 | 0.0 | 6.4 | 0.00 | 0.00 | 0.00 | 38 | 1015.6 |
| 20260506061803 | 22 | 0 | 0.0 | 3.2 | 0.00 | 0.00 | 0.00 | 38 | 1015.6 |
| 20260506061715 | 22 | 0 | 0.0 | 3.2 | 0.00 | 0.00 | 0.00 | 38 | 1015.6 |
| 20260506061602 | 22 | 0 | 0.0 | 3.2 | 0.00 | 0.00 | 0.00 | 38 | 1015.6 |
| 20260506061517 | 22 | 0 | 0.0 | 3.2 | 0.00 | 0.00 | 0.00 | 38 | 1015.5 |
| 20260506061402 | 22 | 0 | 0.0 | 3.2 | 0.00 | 0.00 | 0.00 | 38 | 1015.5 |
| 20260506061315 | 22 | 0 | 0.0 | 3.2 | 0.00 | 0.00 | 0.00 | 38 | 1015.6 |
| 20260506061203 | 22 | 0 | 0.0 | 3.2 | 0.00 | 0.00 | 0.00 | 39 | 1015.6 |
| 20260506061115 | 22 | 0 | 0.0 | 3.2 | 0.00 | 0.00 | 0.00 | 39 | 1015.6 |
| 20260506061003 | 22 | 0 | 0.0 | 3.2 | 0.00 | 0.00 | 0.00 | 40 | 1015.6 |
| 20260506060915 | 21 | 0 | 0.0 | 3.2 | 0.00 | 0.00 | 0.00 | 40 | 1015.6 |
| 20260506060803 | 21 | 0 | 0.0 | 3.2 | 0.00 | 0.00 | 0.00 | 40 | 1015.6 |
| 20260506060715 | 21 | 0 | 0.0 | 0.0 | 0.00 | 0.00 | 0.00 | 41 | 1015.6 |
| 20260506060602 | 21 | 0 | 0.0 | 0.0 | 0.00 | 0.00 | 0.00 | 43 | 1015.6 |
| 20260506060516 | 21 | 0 | 0.0 | 0.0 | 0.00 | 0.00 | 0.00 | 43 | 1015.6 |
| 20260506060402 | 21 | 0 | 0.0 | 0.0 | 0.00 | 0.00 | 0.00 | 43 | 1015.6 |
| 20260506060315 | 21 | 0 | 0.0 | 0.0 | 0.00 | 0.00 | 0.00 | 43 | 1015.6 |
| 20260506060203 | 21 | 0 | 0.0 | 0.0 | 0.00 | 0.00 | 0.00 | 44 | 1015.6 |
| 20260506060115 | 21 | 0 | 0.0 | 0.0 | 0.00 | 0.00 | 0.00 | 43 | 1015.5 |
| 20260506051403 | 16 | 75 | 1.6 | 6.4 | 0.00 | 0.00 | 0.00 | 55 | 1015.4 |
| 20260506051315 | 16 | 75 | 1.6 | 6.4 | 0.00 | 0.00 | 0.00 | 54 | 1015.4 |
| 20260506051203 | 16 | 75 | 3.2 | 6.4 | 0.00 | 0.00 | 0.00 | 54 | 1015.4 |
| 20260506051115 | 16 | 75 | 3.2 | 6.4 | 0.00 | 0.00 | 0.00 | 54 | 1015.4 |
| 20260506051003 | 16 | 75 | 3.2 | 6.4 | 0.00 | 0.00 | 0.00 | 54 | 1015.3 |
| 20260506050915 | 16 | 75 | 3.2 | 9.7 | 0.00 | 0.00 | 0.00 | 54 | 1015.4 |
| 20260506050803 | 16 | 75 | 3.2 | 9.7 | 0.00 | 0.00 | 0.00 | 54 | 1015.3 |
| 20260506050715 | 16 | 75 | 3.2 | 9.7 | 0.00 | 0.00 | 0.00 | 54 | 1015.3 |
| 20260506050603 | 16 | 75 | 4.8 | 9.7 | 0.00 | 0.00 | 0.00 | 54 | 1015.4 |
| 20260506050515 | 16 | 75 | 4.8 | 9.7 | 0.00 | 0.00 | 0.00 | 54 | 1015.3 |
| 20260506050403 | 16 | 76 | 4.8 | 9.7 | 0.00 | 0.00 | 0.00 | 54 | 1015.3 |
| 20260506050314 | 16 | 76 | 6.4 | 9.7 | 0.00 | 0.00 | 0.00 | 54 | 1015.3 |
| 20260506050203 | 16 | 76 | 6.4 | 9.7 | 0.00 | 0.00 | 0.00 | 54 | 1015.3 |
| 20260506050116 | 16 | 77 | 6.4 | 9.7 | 0.00 | 0.00 | 0.00 | 54 | 1015.3 |
| 20260506045115 | 16 | 70 | 9.7 | 20.9 | 0.00 | 0.00 | 0.00 | 54 | 1015.2 |
| 20260506045003 | 16 | 69 | 8.0 | 20.9 | 0.00 | 0.00 | 0.00 | 54 | 1015.2 |
| 20260506044915 | 16 | 69 | 8.0 | 20.9 | 0.00 | 0.00 | 0.00 | 53 | 1015.3 |
| 20260506044803 | 16 | 68 | 8.0 | 20.9 | 0.00 | 0.00 | 0.00 | 53 | 1015.3 |
| 20260506044715 | 16 | 68 | 8.0 | 20.9 | 0.00 | 0.00 | 0.00 | 53 | 1015.3 |
| 20260506044603 | 16 | 68 | 8.0 | 20.9 | 0.00 | 0.00 | 0.00 | 53 | 1015.2 |
| 20260506044515 | 16 | 68 | 8.0 | 20.9 | 0.00 | 0.00 | 0.00 | 54 | 1015.2 |
| 20260506044403 | 16 | 69 | 9.7 | 20.9 | 0.00 | 0.00 | 0.00 | 54 | 1015.3 |
| 20260506044315 | 16 | 69 | 9.7 | 20.9 | 0.00 | 0.00 | 0.00 | 54 | 1015.2 |
| 20260506044203 | 15 | 69 | 11.3 | 20.9 | 0.00 | 0.00 | 0.00 | 54 | 1015.3 |
| 20260506044115 | 15 | 70 | 11.3 | 20.9 | 0.00 | 0.00 | 0.00 | 54 | 1015.2 |
| 20260506044003 | 15 | 72 | 12.9 | 20.9 | 0.00 | 0.00 | 0.00 | 54 | 1015.3 |
| 20260506043915 | 15 | 74 | 14.5 | 20.9 | 0.00 | 0.00 | 0.00 | 54 | 1015.3 |
| 20260506043803 | 15 | 76 | 14.5 | 24.1 | 0.00 | 0.00 | 0.00 | 54 | 1015.3 |
| 20260506043715 | 15 | 77 | 16.1 | 27.4 | 0.00 | 0.00 | 0.00 | 54 | 1015.3 |
| 20260506043603 | 15 | 78 | 16.1 | 27.4 | 0.00 | 0.00 | 0.00 | 54 | 1015.2 |
| 20260506043515 | 15 | 79 | 17.7 | 27.4 | 0.00 | 0.00 | 0.00 | 54 | 1015.2 |
| 20260506043402 | 15 | 79 | 17.7 | 27.4 | 0.00 | 0.00 | 0.00 | 54 | 1015.2 |
| 20260506043315 | 15 | 79 | 17.7 | 27.4 | 0.00 | 0.00 | 0.00 | 54 | 1015.2 |
| 20260506043203 | 15 | 79 | 17.7 | 27.4 | 0.00 | 0.00 | 0.00 | 54 | 1015.2 |
| 20260506043115 | 15 | 79 | 17.7 | 27.4 | 0.00 | 0.00 | 0.00 | 54 | 1015.2 |
| 20260506043003 | 15 | 79 | 16.1 | 27.4 | 0.00 | 0.00 | 0.00 | 55 | 1015.1 |
| 20260506042915 | 15 | 79 | 16.1 | 27.4 | 0.00 | 0.00 | 0.00 | 55 | 1015.1 |
| 20260506042803 | 15 | 78 | 14.5 | 27.4 | 0.00 | 0.00 | 0.00 | 55 | 1015.1 |
| 20260506042715 | 15 | 78 | 12.9 | 27.4 | 0.00 | 0.00 | 0.00 | 55 | 1015.1 |
| 20260506042603 | 15 | 78 | 11.3 | 27.4 | 0.00 | 0.00 | 0.00 | 55 | 1015.1 |
| 20260506042515 | 15 | 77 | 11.3 | 27.4 | 0.00 | 0.00 | 0.00 | 55 | 1015.1 |
| 20260506042404 | 15 | 77 | 9.7 | 27.4 | 0.00 | 0.00 | 0.00 | 55 | 1015.1 |
| 20260506042315 | 15 | 77 | 8.0 | 27.4 | 0.00 | 0.00 | 0.00 | 55 | 1015.1 |
| 20260506042203 | 15 | 77 | 6.4 | 27.4 | 0.00 | 0.00 | 0.00 | 55 | 1015.1 |
| 20260506042115 | 15 | 77 | 6.4 | 27.4 | 0.00 | 0.00 | 0.00 | 55 | 1015.1 |
| 20260506042002 | 15 | 77 | 4.8 | 27.4 | 0.00 | 0.00 | 0.00 | 55 | 1015.1 |
| 20260506041915 | 15 | 77 | 4.8 | 27.4 | 0.00 | 0.00 | 0.00 | 55 | 1015.2 |
| 20260506041803 | 15 | 76 | 4.8 | 27.4 | 0.00 | 0.00 | 0.00 | 55 | 1015.1 |
| 20260506041715 | 15 | 76 | 3.2 | 27.4 | 0.00 | 0.00 | 0.00 | 54 | 1015.2 |
| 20260506041602 | 15 | 77 | 3.2 | 20.9 | 0.00 | 0.00 | 0.00 | 53 | 1015.1 |
| 20260506041515 | 15 | 78 | 3.2 | 17.7 | 0.00 | 0.00 | 0.00 | 53 | 1015.1 |
| 20260506041403 | 15 | 77 | 3.2 | 17.7 | 0.00 | 0.00 | 0.00 | 53 | 1015.2 |
| 20260506041315 | 15 | 76 | 3.2 | 9.7 | 0.00 | 0.00 | 0.00 | 53 | 1015.2 |
| 20260506041202 | 15 | 76 | 1.6 | 9.7 | 0.00 | 0.00 | 0.00 | 53 | 1015.1 |
| 20260506041115 | 15 | 77 | 1.6 | 9.7 | 0.00 | 0.00 | 0.00 | 53 | 1015.1 |
| 20260506041003 | 15 | 77 | 3.2 | 9.7 | 0.00 | 0.00 | 0.00 | 53 | 1015.1 |
| 20260506040915 | 15 | 77 | 3.2 | 9.7 | 0.00 | 0.00 | 0.00 | 53 | 1015.1 |
| 20260506040803 | 15 | 77 | 3.2 | 9.7 | 0.00 | 0.00 | 0.00 | 53 | 1015.1 |
| 20260506040715 | 15 | 77 | 3.2 | 9.7 | 0.00 | 0.00 | 0.00 | 53 | 1015.1 |
| 20260506040603 | 15 | 77 | 3.2 | 9.7 | 0.00 | 0.00 | 0.00 | 53 | 1015.1 |
| 20260506040514 | 15 | 77 | 3.2 | 9.7 | 0.00 | 0.00 | 0.00 | 52 | 1015.1 |
| 20260506040403 | 15 | 76 | 4.8 | 9.7 | 0.00 | 0.00 | 0.00 | 52 | 1015.1 |
| 20260506040314 | 15 | 76 | 4.8 | 9.7 | 0.00 | 0.00 | 0.00 | 52 | 1015.1 |
| 20260506040203 | 15 | 76 | 4.8 | 9.7 | 0.00 | 0.00 | 0.00 | 52 | 1015.0 |
| 20260506040115 | 15 | 76 | 6.4 | 9.7 | 0.00 | 0.00 | 0.00 | 52 | 1015.1 |
| 20260506040004 | 15 | 76 | 6.4 | 9.7 | 0.00 | 0.00 | 0.00 | 52 | 1015.1 |
| 20260506035915 | 15 | 76 | 6.4 | 9.7 | 0.00 | 0.00 | 0.00 | 52 | 1015.0 |
| 20260506035802 | 15 | 76 | 6.4 | 9.7 | 0.00 | 0.00 | 0.00 | 52 | 1015.0 |
| 20260506035715 | 15 | 76 | 6.4 | 9.7 | 0.00 | 0.00 | 0.00 | 52 | 1015.0 |
| 20260506035603 | 15 | 76 | 6.4 | 9.7 | 0.00 | 0.00 | 0.00 | 52 | 1015.0 |
| 20260506035515 | 15 | 76 | 6.4 | 9.7 | 0.00 | 0.00 | 0.00 | 52 | 1015.0 |
| 20260506035403 | 15 | 75 | 6.4 | 16.1 | 0.00 | 0.00 | 0.00 | 52 | 1014.9 |
| 20260506035315 | 15 | 75 | 8.0 | 17.7 | 0.00 | 0.00 | 0.00 | 52 | 1015.0 |
| 20260506035203 | 15 | 75 | 8.0 | 17.7 | 0.00 | 0.00 | 0.00 | 52 | 1015.0 |
| 20260506035116 | 15 | 76 | 8.0 | 17.7 | 0.00 | 0.00 | 0.00 | 52 | 1015.0 |